GFSSGP_con_sbcape_000.txt.gz
CAPE
0 0 2 20 0 0 2 3 0 0 0 0 0 0 0 0 0 0 0 0 0 0 0 126 1944 1544 1217 1257 1293 1242 1278 808 85 0 0 0 0 0 0 0 0 11 32 60 99 23 10 51 43
0 0 0 0 0 6 16 0 0 0 0 0 0 0 0 0 0 0 0 0 0 0 0 0 1949 2130 1955 1826 1566 1417 1289 821 398 53 22 21 5 1 0 0 3 30 50 85 109 96 51 139 125
0 0 3 0 0 1 1 0 0 0 0 0 0 0 0 0 0 0 0 0 0 0 0 0 676 2381 2258 1837 1435 1285 1166 787 486 298 235 185 77 58 6 13 4 62 70 123 150 209 106 80 191
0 0 0 0 13 0 0 0 0 0 0 0 0 0 0 0 0 0 0 0 0 0 0 0 31 674 1645 1717 1601 1695 993 651 478 276 316 209 229 165 85 33 35 11 22 117 198 127 169 257 272
0 0 1 3 4 0 0 0 0 0 0 0 0 0 0 0 0 0 0 0 0 0 0 0 283 691 1239 1367 1062 1115 871 828 446 258 205 320 441 175 151 101 73 60 16 25 73 210 216 256 560
0 0 0 7 18 5 0 0 0 0 0 0 0 0 0 0 0 0 0 0 0 0 0 0 186 825 555 862 540 309 181 162 120 114 119 123 127 144 150 134 119 103 82 15 4 121 251 311 514
0 0 0 0 0 1 0 0 0 0 0 0 0 0 0 0 0 0 0 0 0 0 0 0 0 0 0 0 0 0 0 0 16 11 20 55 66 117 158 138 156 120 100 79 9 9 299 302 249
0 0 0 0 7 8 1 0 0 0 0 0 0 0 0 0 0 0 0 0 0 0 0 0 0 0 0 0 0 0 0 0 2 8 17 92 81 102 141 213 179 133 154 117 16 0 242 281 330
0 0 0 0 5 14 8 0 0 0 0 0 0 0 0 0 0 0 0 0 0 0 0 0 0 0 0 0 0 0 0 0 4 7 12 17 68 90 197 156 134 138 97 119 71 38 236 299 272
0 0 0 0 1 4 2 0 0 0 0 0 0 0 0 0 0 0 0 0 0 0 0 0 0 0 0 0 12 26 23 8 8 8 9 24 75 225 88 75 101 218 182 140 107 97 265 363 346
0 0 0 0 0 0 0 0 0 0 0 0 0 0 0 0 0 0 0 0 0 0 0 0 0 0 0 1 16 22 20 18 13 12 53 9 100 355 347 98 126 254 159 209 195 107 240 295 490
0 0 0 0 0 0 0 0 0 0 0 0 0 0 0 0 0 0 0 0 0 0 0 0 0 0 1 10 24 23 29 21 17 52 10 231 286 330 323 403 75 362 317 278 325 141 296 493 597
0 0 0 0 0 0 0 0 0 0 0 0 0 0 0 0 0 0 0 0 0 0 0 0 0 0 10 25 30 26 58 68 70 67 91 335 319 314 229 151 167 221 299 347 465 250 430 654 646
0 0 0 0 0 0 0 0 0 0 0 0 0 0 0 0 0 0 0 0 0 0 0 0 0 12 28 65 72 98 139 148 85 36 120 298 359 398 445 139 232 542 454 375 404 362 412 719 619
0 0 0 0 0 0 0 0 0 0 0 0 0 0 0 0 0 0 0 0 0 0 0 0 0 19 67 126 116 157 176 220 197 194 222 302 458 491 385 272 112 199 431 525 544 564 655 650 598
0 0 0 1 0 0 0 0 0 0 0 0 0 0 0 0 0 0 0 0 0 0 0 0 0 14 69 124 219 233 252 351 448 483 424 378 525 597 620 701 702 724 796 734 548 550 514 510 523
0 0 3 3 0 0 0 0 0 0 0 0 0 0 0 0 0 0 0 0 0 0 0 0 0 2 49 41 113 191 294 332 355 350 375 360 548 648 762 840 809 799 772 810 724 471 588 556 568
0 0 0 0 0 0 0 0 0 0 0 0 0 0 0 0 0 0 0 0 0 0 0 0 0 0 26 162 109 276 477 505 353 171 68 203 484 507 787 851 760 755 609 756 822 750 575 574 677
0 0 0 0 0 0 0 0 0 0 0 0 0 0 0 0 0 0 0 0 0 0 0 0 0 0 0 87 236 246 331 108 268 146 73 30 228 370 570 684 692 601 649 712 820 817 744 779 807
0 0 0 0 0 0 0 0 0 0 0 0 0 0 0 0 0 0 0 0 0 0 0 0 0 0 0 52 341 371 368 107 9 34 57 64 28 299 439 660 599 570 524 712 777 844 795 981 1134
0 0 0 0 0 0 0 0 0 0 0 0 0 0 0 0 0 0 0 0 0 0 0 0 0 0 0 230 196 732 527 131 439 140 214 136 80 145 297 357 414 532 517 656 1024 1068 992 956 1281
0 0 0 0 0 0 0 0 0 0 0 0 1 0 0 0 0 0 0 0 0 0 0 0 0 0 15 194 85 286 585 260 268 533 393 199 186 91 226 325 411 598 507 1036 1311 1287 1059 1263 1096
0 0 0 0 0 0 0 0 0 0 0 0 0 26 4 0 0 0 0 0 0 0 0 0 3 0 169 227 72 61 239 947 666 371 385 359 440 277 220 261 437 651 1102 1063 1017 1135 1088 1100 646
0 0 0 0 0 0 0 0 0 0 0 0 0 64 38 0 0 0 0 0 0 0 0 0 1 0 28 168 111 70 78 146 474 412 302 160 524 660 353 208 235 660 864 1051 1357 1070 1269 1355 1203
0 0 0 3 7 0 0 0 0 0 0 0 4 11 31 0 0 0 0 0 0 0 0 0 0 0 0 0 31 14 74 119 144 199 145 195 317 612 378 263 389 614 692 855 985 1197 1198 1208 670
0 0 0 2 6 10 0 0 0 0 0 49 99 213 69 0 0 0 0 0 0 0 0 0 0 0 0 0 0 2 18 16 73 464 280 228 312 113 160 169 388 295 525 634 988 1107 1232 1287 492
0 0 0 0 0 2 0 1 0 0 18 86 183 137 33 0 0 0 0 0 0 0 0 0 0 0 0 0 0 0 0 2 73 857 691 250 178 289 251 272 193 473 609 560 812 1482 1300 897 222
0 0 0 0 0 12 4 0 10 25 94 488 327 192 26 0 0 0 0 0 0 0 0 7 8 0 0 0 0 0 0 0 51 276 300 256 163 36 4 163 446 413 606 743 927 1165 778 571 303
0 0 0 0 3 6 21 26 8 8 223 508 549 262 41 0 0 0 0 0 0 0 0 0 22 0 0 0 0 0 0 0 4 34 69 106 26 46 58 0 5 62 292 277 925 796 327 288 124
0 0 0 0 0 0 3 11 15 36 402 576 699 302 36 0 0 0 0 0 0 0 0 0 10 0 0 0 0 0 0 0 0 16 58 123 250 133 65 42 9 0 0 43 429 644 500 497 352

GFSSGP_con_sbcape_003.txt.gz
CAPE
0 0 0 35 12 1 10 47 0 0 1 0 0 0 0 0 0 0 0 0 0 0 0 524 1705 1095 969 1176 1144 1242 1285 951 394 63 0 3 1 0 0 0 0 0 4 19 54 129 51 33 142
0 0 29 95 0 40 10 5 1 0 0 0 0 0 0 0 0 0 0 0 0 0 0 0 1800 1878 1737 1718 1726 1683 1271 1110 603 270 50 56 44 8 0 0 0 1 4 17 57 119 135 106 221
5 9 0 53 57 69 15 5 0 1 0 0 0 0 0 0 0 0 0 0 0 0 0 0 2252 2242 2142 1961 1997 1874 1311 958 411 35 140 192 155 99 74 37 29 18 8 24 103 169 240 141 178
0 0 0 0 26 9 0 0 0 0 0 0 0 0 0 0 0 0 0 0 0 0 0 113 847 998 1340 1826 1779 1701 1232 694 341 53 219 418 246 272 142 186 126 68 15 38 152 280 273 297 411
0 0 10 68 64 46 0 5 0 0 0 0 0 0 0 0 0 0 0 0 0 0 0 0 407 345 578 868 1061 1220 891 741 338 218 245 312 206 251 220 236 222 133 81 14 28 135 317 290 329
0 0 4 67 37 20 12 0 0 0 0 0 0 0 0 0 0 0 0 0 0 0 0 0 108 369 719 479 294 93 5 25 39 66 122 138 121 124 93 148 283 263 131 44 45 45 105 361 196
0 0 25 32 53 36 19 0 0 0 0 2 0 0 0 0 0 0 0 0 0 0 0 0 0 0 0 0 0 0 0 0 0 0 0 2 46 154 140 177 328 255 235 120 15 1 7 252 180
0 0 9 17 48 49 21 0 0 0 0 0 0 0 0 0 0 0 0 0 0 0 0 0 0 0 0 0 0 0 0 0 0 1 2 14 40 187 246 227 287 267 270 139 183 79 0 120 304
0 1 10 9 27 36 9 12 4 0 0 0 0 0 0 0 0 0 0 0 0 0 0 0 0 0 0 0 0 1 11 4 1 1 5 15 34 140 164 389 352 274 272 181 130 88 0 159 352
0 4 0 0 0 0 1 14 24 19 1 0 0 0 0 0 0 0 0 0 0 0 0 0 0 0 0 0 2 14 25 14 17 12 10 16 33 113 221 220 249 238 232 146 114 102 42 206 240
0 0 0 0 0 0 1 0 11 0 0 3 0 0 0 0 0 0 0 0 0 0 0 0 0 0 0 0 3 10 28 15 24 11 25 32 16 210 382 543 293 404 340 347 126 161 47 6 215
2 0 0 0 0 0 0 1 0 0 0 0 0 0 0 0 0 0 0 0 0 0 0 0 0 0 4 3 5 35 42 36 39 17 47 56 170 502 442 394 560 552 702 534 729 419 64 79 749
0 0 0 0 0 0 0 0 0 0 0 0 0 0 0 0 0 0 0 0 0 0 0 0 0 15 58 18 30 62 68 44 61 51 58 68 381 437 246 347 398 319 326 592 541 417 258 314 573
0 3 0 0 0 0 0 0 0 0 0 0 0 0 0 0 0 0 0 0 0 0 0 0 0 23 8 167 179 155 305 189 106 76 45 102 253 416 402 344 184 597 449 306 886 542 290 397 638
0 0 0 0 0 0 0 0 0 0 0 0 0 0 0 0 0 0 0 0 0 0 0 0 0 0 5 220 168 236 203 436 248 287 219 249 508 534 452 348 387 827 808 841 955 647 752 862 940
0 0 0 0 6 2 0 0 10 1 0 0 0 0 0 0 0 0 0 0 0 0 0 0 0 0 15 143 209 275 254 406 406 322 215 215 313 433 612 466 389 608 1224 1094 900 385 553 729 706
0 0 5 8 16 1 0 0 1 6 0 0 0 0 0 0 0 0 0 0 0 0 0 0 0 0 82 149 270 338 486 631 549 171 109 72 399 405 677 874 735 686 1108 1088 805 931 814 957 754
2 22 30 17 78 35 16 5 20 13 0 1 0 0 0 0 0 0 0 0 0 0 4 0 0 74 118 226 242 535 773 578 500 77 15 3 185 359 714 943 888 937 1084 964 907 906 1106 811 685
0 13 37 41 60 52 40 6 43 81 10 0 0 0 0 0 0 0 2 0 0 0 15 15 0 72 16 63 441 384 840 218 201 203 67 118 37 230 500 895 873 931 1056 999 1017 737 1047 1169 989
0 7 4 6 28 56 30 5 11 0 0 0 0 0 6 16 0 0 25 0 0 0 1 15 17 18 11 74 890 594 759 675 101 351 245 107 137 242 341 679 568 660 860 813 941 1116 1141 1150 1504
4 0 1 7 41 43 11 0 6 4 0 0 0 0 15 61 35 13 26 0 0 0 5 0 10 10 76 509 548 497 719 763 788 621 349 204 112 191 368 435 417 496 640 853 1155 1083 861 1074 1311
9 0 0 1 19 21 14 9 5 4 0 0 0 0 16 83 69 30 37 4 0 0 1 0 4 21 179 286 92 349 743 1137 859 699 808 527 196 189 269 362 440 537 540 1157 972 1497 1103 1611 1157
0 0 3 6 3 3 2 0 6 3 11 0 0 3 44 117 72 52 29 7 0 0 0 0 41 27 283 159 189 304 621 824 1109 990 674 636 447 244 188 322 438 490 845 1306 1062 1194 1194 1816 1086
0 0 0 3 2 0 0 1 18 16 4 0 0 8 142 135 65 41 33 0 0 0 0 14 73 0 100 176 53 278 384 649 795 520 535 425 800 412 288 277 508 727 904 1238 1436 1239 1507 1498 1322
0 0 0 5 73 7 12 1 2 0 0 0 4 101 205 136 69 49 28 0 0 0 0 14 11 0 0 5 2 85 217 349 707 675 487 343 716 136 412 439 565 987 997 1127 1149 1545 1486 1556 893
0 0 0 9 45 75 18 0 16 0 0 0 1 113 335 152 64 50 25 0 0 0 0 0 1 0 0 0 2 20 79 599 1300 394 379 105 215 216 381 556 526 576 737 1067 1176 1576 1466 1482 720
0 0 0 3 0 6 61 22 8 0 0 4 48 324 401 172 61 37 10 0 0 0 0 0 4 0 0 0 0 5 70 662 937 785 677 485 402 422 377 365 595 576 601 916 1050 1439 949 1061 1039
0 0 0 0 1 29 55 30 42 0 53 366 400 418 344 106 21 3 0 6 0 0 0 0 3 0 0 0 0 0 33 358 477 251 367 463 144 295 302 462 531 605 609 760 1125 1402 783 607 461
0 0 0 2 3 23 81 86 26 2 158 450 458 429 215 46 0 0 0 11 0 0 0 0 11 0 0 0 0 0 8 86 98 278 427 112 282 104 480 460 472 570 700 855 1310 1352 933 453 202
0 0 0 0 0 5 94 149 3 0 140 294 394 340 99 11 0 0 2 1 0 0 0 0 6 0 0 0 0 0 4 15 146 329 685 412 565 62 64 307 389 387 515 874 940 731 722 313 162

GFSSGP_con_sbcape_009.txt.gz
CAPE
0 0 0 0 0 0 0 0 0 0 0 0 0 0 0 0 0 0 0 0 26 0 212 1238 1606 1535 1248 1266 1262 1153 1030 887 279 167 99 1 0 0 0 0 0 0 0 0 0 0 1 4 8
0 0 0 0 0 0 0 0 0 0 0 0 0 0 0 0 0 0 0 0 143 72 423 640 1760 1632 1593 1546 1407 1278 1279 1133 739 537 385 206 13 2 0 18 28 12 4 7 4 2 2 0 2
0 0 0 0 5 0 12 0 0 0 0 0 0 0 0 0 0 0 0 0 138 234 121 573 1919 1720 1805 1791 1634 1576 1536 1472 913 652 186 70 39 98 78 90 110 101 70 33 16 5 5 1 3
0 0 2 0 0 0 0 0 0 0 0 0 0 0 0 0 0 0 0 0 0 0 240 1357 1942 1842 1978 1673 1759 1923 1690 1171 901 560 115 47 37 230 266 73 85 85 111 105 67 9 7 10 51
0 0 0 3 8 4 0 1 0 0 0 0 0 0 0 0 0 0 0 0 0 52 722 1576 2029 2256 2134 1648 1535 1782 1238 825 389 277 147 94 90 99 132 122 110 122 155 137 168 63 26 73 161
0 0 0 0 0 1 0 0 0 0 0 0 0 0 0 0 0 0 0 0 0 0 105 590 1550 1332 1104 1071 1114 948 363 37 4 0 0 3 29 29 67 84 86 104 117 111 247 236 321 330 117
0 0 0 0 0 0 0 0 0 0 0 0 0 0 0 0 0 0 0 0 0 0 0 1 41 371 1146 1281 1098 496 2 0 0 0 0 0 0 1 4 5 12 78 111 156 499 411 408 387 99
0 0 0 0 0 0 0 0 0 0 0 0 0 0 0 0 0 0 0 0 0 0 0 0 1 12 50 113 160 0 0 0 0 0 0 0 5 3 2 1 4 47 146 254 537 515 448 523 393
0 0 0 0 0 0 0 0 0 0 0 0 0 0 0 0 0 0 0 0 0 0 0 0 0 0 0 0 0 1 0 0 0 0 0 0 0 0 0 3 46 246 346 358 606 583 492 500 212
0 0 0 0 0 0 0 0 0 0 0 0 0 0 0 0 0 0 0 0 0 0 0 0 0 0 0 0 0 0 0 4 0 0 0 0 0 0 0 0 20 109 394 520 555 594 570 332 4
2 0 0 0 0 0 0 0 0 0 0 0 0 0 0 0 0 0 0 0 0 0 0 0 0 0 0 0 0 0 0 0 0 0 0 0 0 0 0 0 0 0 97 126 354 378 350 132 0
4 0 0 0 0 0 0 0 0 0 0 0 0 0 0 0 0 0 0 0 0 0 0 0 0 0 0 0 0 0 0 0 0 0 0 0 0 0 0 0 0 0 0 83 151 124 108 64 0
5 0 0 0 0 0 0 0 0 0 0 0 0 0 0 0 0 0 0 0 0 0 0 0 0 0 10 4 0 0 0 0 0 0 0 0 0 0 5 3 0 0 0 14 102 147 153 52 5
0 0 0 0 0 0 0 0 0 0 0 0 0 0 0 0 0 0 0 0 0 0 0 0 0 2 12 6 0 0 0 0 0 0 0 0 3 13 0 1 0 0 0 0 70 124 158 38 1
0 0 0 0 0 0 0 0 0 0 0 0 0 0 0 0 0 0 0 0 0 0 0 0 0 0 0 0 0 0 0 0 0 0 0 6 37 45 1 10 0 0 0 8 91 128 77 56 41
0 0 0 0 0 0 0 0 0 0 0 0 0 0 0 0 0 0 0 0 0 0 0 0 0 0 0 0 1 0 0 0 0 4 0 1 32 32 2 19 8 0 0 0 34 108 79 152 95
0 0 0 0 0 0 0 0 0 0 0 0 0 2 0 0 0 0 0 0 0 0 0 0 0 0 0 1 0 0 0 7 44 12 0 0 0 0 0 4 23 0 0 0 22 50 135 92 113
0 0 0 0 0 0 0 0 0 0 0 0 0 0 0 0 0 0 0 0 0 0 0 0 0 0 8 0 10 0 5 115 150 31 0 0 0 0 0 33 35 1 0 0 33 39 40 129 135
0 0 0 0 0 0 0 0 0 0 0 0 4 0 16 0 0 0 0 0 0 0 5 5 0 0 0 0 22 0 1 9 33 38 0 0 0 0 0 42 35 33 0 3 22 23 87 128 22
0 0 0 0 0 0 0 0 1 8 3 8 1 0 0 0 0 0 0 0 0 0 1 82 0 0 0 13 129 66 127 72 25 11 25 5 3 1 5 37 46 82 76 58 46 79 71 3 43
0 0 0 0 0 0 0 0 0 2 3 0 0 0 0 0 0 0 2 0 0 0 0 32 12 0 0 100 108 0 13 22 22 39 9 4 20 19 14 54 36 87 67 106 44 33 23 26 91
0 0 0 0 0 0 0 0 0 0 0 0 0 0 0 0 0 0 10 0 0 0 0 25 0 0 8 0 12 30 22 8 23 49 37 34 30 23 42 64 59 45 55 81 114 69 75 51 106
0 0 0 0 0 0 0 0 0 0 0 0 0 0 0 0 0 3 13 0 0 0 0 0 0 0 44 52 8 122 41 38 24 4 10 4 3 61 61 105 57 16 48 30 104 0 31 13 56
0 0 0 0 0 0 0 0 0 0 0 0 0 0 0 0 0 2 2 0 0 0 0 0 1 6 85 124 13 0 31 36 13 0 1 14 30 31 80 65 84 35 61 81 110 4 68 3 53
0 0 0 0 0 0 0 0 0 0 0 0 0 0 0 0 0 0 2 0 0 0 0 0 5 0 0 0 0 0 0 19 10 0 0 10 23 14 19 53 213 153 61 300 183 112 109 62 102
0 0 0 0 0 0 0 0 0 0 0 0 0 1 0 0 0 0 0 0 0 0 0 1 0 0 0 0 0 0 0 8 5 3 12 44 37 19 47 145 193 198 233 243 154 56 103 71 93
0 0 0 0 0 0 0 0 3 0 0 0 0 0 0 0 0 0 0 0 0 0 0 0 0 0 0 0 0 0 3 38 43 95 4 11 47 95 161 202 256 255 301 174 119 279 195 139 75
0 0 2 0 0 0 0 0 0 0 0 9 11 8 0 0 0 0 0 0 0 0 0 0 0 0 0 0 0 14 62 81 87 90 79 1 40 69 157 213 216 226 190 186 244 240 26 39 22
0 0 0 0 0 0 0 0 0 0 25 24 52 27 0 0 0 0 0 0 0 0 0 0 0 0 0 0 0 59 67 46 60 52 0 10 23 80 99 131 232 233 306 178 142 115 20 4 1
0 0 0 0 0 0 0 0 115 145 68 49 131 65 0 0 0 0 0 0 0 0 0 0 0 0 0 0 0 6 2 58 67 126 2 8 16 56 144 183 230 222 145 126 122 141 59 6 0

GFSSGP_con_sbcape_012.txt.gz
CAPE
4 0 0 0 0 0 0 0 0 0 0 0 0 0 0 0 0 0 0 0 0 0 198 1096 1454 1366 1192 1053 938 839 775 477 112 39 23 4 0 0 0 0 0 0 0 0 0 0 0 0 8
0 0 0 0 0 0 0 0 0 0 0 0 0 0 0 0 0 0 0 4 0 0 161 753 1674 1517 1437 1386 1371 1323 1068 675 335 296 235 311 132 9 0 0 0 1 3 8 5 1 0 0 0
0 0 0 0 0 0 4 0 0 0 0 0 0 0 0 0 0 0 0 0 0 0 128 513 1803 1640 1649 1566 1595 1504 1195 958 671 714 508 495 192 146 68 20 59 60 61 19 8 14 7 0 2
0 0 0 0 0 0 4 0 0 0 0 0 0 0 0 0 0 0 0 43 0 1 103 545 1973 1869 1933 1593 1418 1424 1076 1020 1110 910 623 268 94 332 424 168 121 80 19 58 60 25 12 10 9
0 0 0 0 0 0 0 0 0 0 0 0 0 0 0 0 0 0 0 13 0 49 94 924 2097 2091 2168 1807 1520 1623 1681 1748 1175 756 611 270 353 465 159 93 71 71 64 80 127 103 130 159 64
0 0 0 0 0 0 0 0 0 0 0 0 0 0 0 0 0 0 0 0 9 283 688 1252 1917 2026 2020 2203 2078 2051 1796 1155 783 480 325 223 152 130 118 119 102 84 83 116 128 174 329 362 231
0 0 0 0 0 0 0 0 0 0 0 0 0 0 0 0 0 0 0 0 5 171 486 721 1127 1539 2216 1851 1515 1465 1045 665 296 16 0 0 0 0 8 13 60 33 83 118 130 218 507 535 437
0 0 0 0 0 0 0 0 0 0 0 0 0 0 0 0 0 0 0 0 0 0 10 22 74 186 374 717 952 870 623 84 0 0 0 0 0 0 1 10 17 26 19 28 117 229 613 478 569
0 0 0 0 0 0 0 0 0 0 0 0 0 0 0 0 0 0 0 0 0 0 0 0 0 8 12 12 72 430 73 2 1 2 0 3 0 0 0 0 12 48 173 182 154 246 395 499 513
0 0 0 0 0 0 0 0 0 0 0 0 0 0 0 0 0 0 0 0 0 0 0 0 0 0 0 0 0 0 0 0 0 0 0 0 0 0 0 0 1 13 20 240 341 460 543 570 5
0 0 0 0 0 0 0 0 0 0 0 0 0 0 0 0 0 0 0 0 0 0 0 0 0 0 0 0 0 0 0 0 0 0 0 0 0 0 0 0 0 0 0 0 130 225 374 239 3
0 0 0 0 0 0 0 0 0 0 0 0 0 0 0 0 0 0 0 0 0 0 0 0 0 0 0 0 0 0 0 0 0 0 0 0 0 0 0 0 0 0 0 0 0 20 26 106 43
0 0 0 0 0 0 0 0 0 0 0 0 0 0 0 0 0 0 0 0 0 0 0 0 0 0 0 0 0 0 0 0 0 0 0 0 0 0 0 2 0 0 0 0 0 0 14 81 56
0 0 0 0 0 0 0 0 0 0 0 0 0 0 0 0 0 0 0 0 0 0 0 0 0 0 0 0 0 0 0 0 0 0 0 0 0 0 1 0 0 0 0 0 0 0 0 38 12
0 0 0 0 0 0 0 0 0 0 0 0 0 0 0 0 0 0 0 0 0 0 0 0 0 0 0 0 0 0 0 0 0 0 0 0 0 0 14 0 0 0 0 0 0 0 9 31 4
0 0 0 0 0 0 0 0 0 0 0 0 0 0 0 0 0 0 0 0 0 0 0 0 4 0 0 0 0 0 0 0 0 0 0 0 0 0 0 0 0 0 0 0 0 0 32 55 32
0 0 0 0 0 0 0 0 0 0 0 0 0 0 0 0 0 0 0 0 0 0 0 0 0 0 0 0 0 0 0 0 0 0 0 0 0 0 0 0 0 0 0 0 0 4 61 96 40
0 0 0 0 0 0 0 0 0 0 0 0 0 0 0 0 0 0 0 0 0 0 0 0 0 0 0 0 0 0 0 0 1 5 0 0 0 0 0 0 0 0 0 0 0 0 38 44 1
0 0 0 0 0 0 0 0 0 0 0 0 0 0 0 0 0 0 0 0 0 0 0 0 0 0 0 0 0 0 0 0 0 4 0 0 0 0 0 0 0 0 0 0 0 0 1 2 0
0 0 0 0 0 0 0 0 0 0 0 0 0 0 0 0 0 0 0 0 0 0 0 0 0 0 0 0 0 0 0 0 0 0 1 2 0 0 0 0 0 0 0 0 0 6 0 0 0
0 0 0 0 0 0 0 0 0 0 0 0 0 0 0 0 0 0 0 0 0 0 0 0 0 0 0 0 0 0 0 0 0 2 1 5 17 5 0 0 0 0 0 0 0 0 0 11 3
0 0 0 0 0 0 0 0 0 0 0 0 0 0 0 0 0 0 0 0 0 0 0 0 0 0 0 0 0 0 0 0 0 0 3 1 16 9 13 5 0 0 0 0 0 0 0 18 59
0 0 0 0 0 0 0 0 0 0 0 0 0 0 0 0 0 0 0 0 0 0 0 0 0 11 0 0 0 0 0 0 0 0 0 0 2 25 35 0 0 0 0 0 0 0 0 8 19
0 0 0 0 0 0 0 0 0 0 0 0 0 0 0 0 0 0 0 0 0 0 0 0 0 0 0 0 0 0 0 0 0 0 0 0 6 4 13 0 0 0 0 0 0 0 0 1 68
0 0 0 0 0 0 0 0 0 0 0 0 0 0 0 0 0 0 0 0 0 0 0 0 0 0 0 0 0 0 0 0 0 0 0 0 0 0 0 0 14 0 2 0 0 0 0 0 41
0 0 0 0 0 0 0 0 0 0 0 0 0 0 0 0 0 0 0 0 0 0 0 0 0 0 0 0 0 0 0 0 0 0 0 0 0 0 0 0 10 4 30 22 1 0 14 0 0
0 0 0 0 0 0 0 0 0 0 0 0 0 0 0 0 0 0 0 0 0 0 0 0 0 0 0 0 0 0 0 0 0 2 0 0 0 4 2 0 9 80 86 2 6 24 25 2 0
0 0 0 0 0 0 0 0 0 0 0 0 0 0 0 0 0 0 0 0 0 0 0 0 0 0 0 0 0 0 0 3 7 9 0 0 0 11 38 30 26 30 16 60 43 18 1 3 2
0 0 0 0 0 0 0 0 0 0 0 0 0 0 0 0 0 0 0 0 0 0 0 0 0 0 0 0 0 0 0 4 0 0 0 0 0 16 22 24 51 51 39 30 12 0 0 0 0
0 0 0 0 0 0 0 0 0 0 0 0 0 0 0 0 0 0 0 0 0 0 0 0 0 0 0 0 0 0 0 0 0 0 0 0 0 18 26 56 48 29 1 2 17 1 1 0 0

GFSSGP_con_sbcape_015.txt.gz
CAPE
8 0 0 0 0 0 0 0 0 0 0 0 0 0 0 0 0 0 0 0 0 0 0 1033 1419 1190 871 780 625 495 326 177 6 0 0 0 0 0 0 0 0 0 0 0 0 0 0 0 0
0 0 0 0 0 0 0 0 1 0 0 0 0 0 0 0 0 0 0 0 0 0 44 684 1554 1357 1215 1167 1005 827 516 256 47 6 17 76 90 56 0 0 4 6 9 9 11 2 0 1 0
0 0 0 0 0 0 0 0 0 0 0 0 0 0 0 0 0 0 0 0 0 0 110 422 1627 1483 1514 1345 1320 1123 776 605 349 303 361 311 463 222 146 20 3 16 31 23 15 9 11 3 4
0 0 0 0 0 0 0 3 0 0 0 0 0 0 0 0 0 0 0 0 0 0 17 354 1700 1722 1777 1635 1508 1381 940 731 648 682 790 641 432 202 246 176 112 106 74 52 34 32 80 47 23
0 0 0 0 0 0 0 0 0 0 0 0 0 0 0 0 0 0 57 0 0 0 40 427 1858 1945 2011 1818 1620 1431 1413 1366 1059 1067 947 664 437 288 153 110 95 114 97 65 41 89 156 113 62
0 0 0 0 0 0 0 0 0 0 0 0 0 0 0 0 0 0 64 30 3 9 51 373 1770 2019 2079 2095 1998 1916 1863 1822 1586 1377 921 675 378 193 208 182 122 78 67 98 96 136 178 276 204
0 0 0 0 0 0 0 0 0 0 0 0 0 0 0 0 0 0 0 0 2 88 274 750 1348 1680 2159 2093 2066 2111 2212 1940 1387 1010 701 277 30 3 10 5 25 30 54 76 106 126 279 372 228
0 0 0 0 0 0 0 0 0 0 0 0 0 0 0 0 0 0 0 0 12 313 440 633 700 938 959 1455 2298 2079 1612 1107 824 475 1 0 3 24 2 16 12 13 26 60 103 74 399 480 357
0 0 0 0 0 0 0 0 0 0 0 0 0 0 0 0 0 0 0 0 0 4 9 36 106 224 360 424 612 1223 805 601 191 10 23 62 0 0 0 0 0 7 26 92 92 41 374 288 229
0 0 0 0 0 0 0 0 0 0 0 0 0 0 0 0 0 0 0 0 0 0 0 0 0 27 17 8 2 45 2 0 0 0 0 0 0 0 0 0 3 12 23 54 128 181 231 250 36
0 0 0 0 0 0 0 0 0 0 0 0 0 0 0 0 0 0 0 0 0 0 0 0 0 0 0 0 0 0 0 0 0 0 0 0 0 0 0 0 0 0 0 0 3 6 60 129 0
0 0 0 0 0 0 0 0 0 0 0 0 0 0 0 0 0 0 0 0 0 0 0 0 0 0 0 0 0 0 0 0 0 0 0 0 0 0 0 0 0 0 0 0 0 0 11 74 0
0 0 0 0 0 0 0 0 0 0 0 0 0 0 0 0 0 0 0 0 0 0 0 0 0 0 0 0 0 0 0 0 0 0 0 0 0 0 0 0 0 3 0 0 0 0 0 0 0
0 0 0 0 0 0 0 0 0 0 0 0 0 0 0 0 0 0 0 0 0 0 0 0 0 0 0 0 0 0 0 0 0 0 0 0 0 0 0 0 0 0 0 0 0 0 0 0 0
0 0 0 0 0 0 0 0 0 0 0 0 0 0 0 0 0 0 0 0 0 0 0 0 0 0 0 0 0 0 0 0 0 0 0 0 0 0 0 0 0 0 0 0 0 0 0 0 0
0 0 0 0 0 0 0 0 0 0 0 0 0 0 0 0 0 0 0 0 0 0 0 0 0 0 0 0 0 0 0 0 0 0 0 0 0 0 0 0 0 0 0 0 0 0 0 0 0
0 0 0 0 0 0 0 0 0 0 0 0 0 0 0 0 0 0 0 0 0 0 0 0 0 0 0 0 0 0 0 0 0 0 0 0 0 0 0 0 0 0 0 0 0 0 0 0 0
0 0 0 0 0 0 0 0 0 0 0 0 0 0 0 0 0 0 0 0 0 0 0 0 0 0 0 0 0 0 0 0 0 0 0 0 0 0 0 0 0 0 0 0 0 0 1 9 0
0 0 0 0 0 0 0 0 0 0 0 0 0 0 0 0 0 0 0 0 0 0 0 0 0 0 0 0 0 0 0 0 0 0 0 0 0 0 0 0 0 0 0 0 0 0 0 0 0
0 0 0 0 0 0 0 0 0 0 0 0 0 0 0 0 0 0 0 0 0 0 0 0 0 0 0 0 0 0 0 0 0 0 0 0 2 0 0 0 0 0 0 0 0 0 0 0 0
0 0 0 0 0 0 0 0 0 0 0 0 0 0 0 0 0 0 0 0 0 0 0 0 0 0 0 0 0 0 0 0 0 0 0 0 3 2 0 0 0 0 0 0 0 0 0 0 1
0 0 0 0 0 0 0 0 0 0 0 0 0 0 0 0 0 0 0 0 0 0 0 0 0 0 0 0 0 0 0 0 0 0 0 0 5 15 0 0 0 0 0 0 0 0 0 0 7
0 0 0 0 0 0 0 0 0 0 0 0 0 0 0 0 0 0 0 0 0 0 0 0 0 0 0 0 0 0 0 0 0 0 0 0 0 5 0 0 0 0 0 0 0 0 0 0 0
0 0 0 0 0 0 0 0 0 0 0 0 0 0 0 0 0 0 0 0 0 0 0 0 0 0 0 0 0 0 0 0 0 0 0 0 0 0 0 0 0 0 0 0 0 0 0 0 23
0 0 0 0 0 0 0 0 0 0 0 0 0 0 0 0 0 0 0 0 0 0 0 0 0 0 0 0 0 0 0 0 0 0 0 0 0 0 0 0 0 0 0 0 0 0 0 1 9
0 0 0 0 0 0 0 0 0 0 0 0 0 0 0 0 0 0 0 0 0 0 0 0 0 0 0 0 0 0 0 0 0 0 0 0 0 0 0 0 0 0 0 0 0 0 0 1 3
0 0 0 0 0 0 0 0 0 0 0 0 0 0 0 0 0 0 0 0 0 0 0 0 0 0 0 0 0 0 0 0 0 0 0 0 0 0 0 0 0 0 0 0 0 0 1 0 0
0 0 0 0 0 0 0 0 0 0 0 0 0 0 0 0 0 0 0 0 0 0 0 0 0 0 0 0 0 0 0 0 0 0 0 0 0 0 0 0 0 0 0 0 7 7 13 2 2
0 0 0 0 0 0 0 0 0 0 0 0 0 0 0 0 0 0 0 0 0 0 0 0 0 0 0 0 0 0 0 0 0 0 0 0 0 0 0 0 0 0 1 1 0 0 1 0 1
0 0 0 0 0 0 0 0 0 0 0 0 0 0 0 0 0 0 0 0 0 0 0 0 0 0 0 0 0 0 0 0 0 0 0 0 0 0 0 0 0 0 0 0 0 0 0 0 1

GFSSGP_con_sbcape_021.txt.gz
CAPE
0 0 0 0 0 0 0 0 0 0 0 0 0 0 0 0 0 0 0 13 14 0 1 740 1349 1002 624 396 290 199 131 91 0 0 0 0 0 0 0 0 0 0 0 0 0 0 0 0 0
0 0 0 0 0 0 0 0 0 0 0 0 0 0 0 0 0 0 9 9 6 0 65 228 1430 1167 889 776 734 587 405 237 86 5 0 0 0 0 0 0 0 0 0 0 1 12 12 1 4
0 0 0 0 11 0 0 0 0 0 0 0 0 0 0 0 0 0 9 48 0 4 197 579 1572 1360 1167 1082 1062 981 796 576 202 9 0 0 0 5 106 76 38 14 3 4 22 18 13 14 12
0 0 0 0 0 0 0 0 0 0 0 0 0 0 0 0 0 0 14 80 0 0 186 532 1586 1571 1405 1351 1325 1226 1047 758 378 125 83 57 98 463 438 381 307 227 169 87 71 42 210 58 49
0 0 0 4 1 0 0 0 0 0 0 0 0 0 0 0 0 0 43 124 62 21 79 360 1625 1790 1698 1653 1624 1439 1245 1115 990 499 405 416 748 637 627 528 437 310 306 228 171 145 342 414 378
0 0 0 0 0 0 0 0 0 0 0 0 0 0 0 0 0 0 47 230 185 145 154 431 1423 1938 1825 1816 1740 1700 1558 1527 1493 1241 1204 1109 1172 837 663 508 258 180 217 233 252 152 398 225 212
0 0 0 0 0 0 0 0 0 0 0 0 0 0 0 0 0 0 41 223 132 249 261 551 911 1650 1914 1885 1805 1870 1861 1889 1902 1701 1623 1635 1030 989 559 132 17 3 14 86 139 110 248 192 114
0 0 0 0 0 0 0 0 0 0 0 0 0 0 0 0 0 1 69 148 99 194 376 529 984 1231 1245 1222 2073 2121 2142 2135 2045 1963 1880 1775 913 573 38 73 0 0 2 9 16 23 42 207 216
0 0 0 0 0 0 0 0 0 0 0 0 0 0 0 0 0 0 58 102 114 183 288 433 602 1058 1176 1100 1320 2170 1971 1870 1980 1615 1450 1177 348 68 73 26 18 0 1 2 5 13 38 63 101
0 0 0 0 0 0 0 0 0 0 0 0 0 1 0 0 0 0 34 73 146 227 291 334 541 927 1124 1050 1404 1583 1382 1169 1190 996 739 578 280 209 52 7 0 0 0 6 10 19 118 139 197
0 0 0 0 0 0 0 0 0 0 0 0 0 0 11 6 0 0 0 29 48 169 276 382 652 916 1049 1025 1250 1223 1160 907 873 870 666 330 188 203 149 28 0 2 0 3 8 9 6 8 62
0 0 0 0 0 0 0 0 0 0 0 0 0 0 0 9 0 0 0 5 40 79 193 384 604 786 1032 913 815 545 505 460 334 329 432 366 281 203 90 12 1 0 0 6 47 40 50 53 95
0 0 0 0 0 0 0 0 0 0 0 0 0 0 1 6 0 0 0 0 2 20 58 172 486 743 758 530 339 182 114 159 225 259 200 169 115 248 216 18 13 19 13 36 67 72 84 101 253
0 0 0 0 0 0 0 0 0 0 0 0 0 0 0 0 0 0 0 0 1 7 4 49 317 548 355 262 236 190 244 193 237 194 173 173 173 193 29 42 36 62 79 79 90 60 98 131 221
0 0 0 0 0 0 0 0 0 0 0 0 0 0 0 0 0 0 0 6 11 0 0 16 150 193 212 187 216 248 159 172 245 250 292 109 104 132 134 150 170 148 92 61 99 78 108 162 247
0 0 0 0 0 0 0 0 0 0 0 0 0 0 0 0 0 0 0 5 0 0 0 0 0 48 152 196 256 153 189 208 269 268 263 217 267 283 373 331 249 157 116 94 95 103 106 187 259
0 0 0 0 0 0 0 0 0 0 0 0 0 0 0 0 0 1 0 0 0 0 0 0 0 6 122 267 119 178 248 206 248 273 305 337 257 303 404 241 201 173 117 101 164 140 125 271 392
0 0 0 0 0 0 0 0 0 0 0 0 0 0 0 0 0 0 0 0 0 0 0 36 42 169 210 131 79 108 165 170 254 337 333 442 491 451 487 25 77 100 119 124 190 234 183 322 437
0 0 0 0 0 0 0 0 0 0 0 0 0 0 0 0 0 0 0 0 0 0 1 43 42 181 108 56 72 175 189 408 402 508 436 393 568 446 88 15 86 72 92 170 249 305 291 466 499
0 0 0 0 0 0 0 0 0 0 0 0 0 0 0 0 0 0 0 0 0 0 0 15 105 97 92 110 159 268 468 498 469 381 412 389 467 496 183 153 2 30 138 279 298 279 352 527 619
0 0 0 0 0 0 0 0 0 0 0 0 0 0 0 0 0 0 0 0 0 0 0 26 66 59 64 100 258 333 264 322 275 400 344 290 253 334 99 77 85 165 380 494 328 282 422 557 577
0 0 0 0 0 0 0 0 0 0 0 0 0 0 0 0 0 0 0 0 0 0 0 13 17 69 53 189 252 492 376 254 292 293 246 243 98 287 95 288 192 353 421 433 349 323 430 581 574
0 0 0 0 0 0 0 0 0 0 0 0 0 0 0 0 0 0 0 0 0 0 0 0 14 47 133 205 331 343 251 149 207 165 176 107 211 283 149 349 311 492 492 494 332 342 422 472 814
0 0 0 0 0 0 0 0 0 0 0 0 0 0 0 0 0 0 0 0 0 0 0 0 19 88 157 147 287 282 205 116 79 34 109 164 287 348 396 336 462 527 483 397 299 333 414 559 793
0 0 0 0 0 0 0 0 0 0 0 0 0 0 0 0 0 0 0 0 0 0 0 0 17 71 166 174 200 48 88 84 8 76 223 306 232 399 483 489 499 479 482 430 281 379 397 487 633
0 0 0 0 0 0 0 0 0 0 0 0 0 0 0 0 0 0 0 0 0 0 0 0 28 109 153 202 179 32 29 16 25 68 217 202 320 412 511 488 386 360 408 379 395 325 350 431 545
0 0 0 0 0 0 0 0 0 0 0 0 0 0 0 0 0 0 0 0 0 0 6 26 18 105 165 225 151 148 30 117 251 206 148 221 271 292 467 464 412 524 399 192 428 305 272 463 339
0 0 0 0 0 0 0 0 0 0 0 0 0 0 0 0 0 0 0 0 0 1 6 3 14 57 54 105 104 169 124 264 106 152 317 313 322 267 393 377 477 504 503 377 393 251 374 382 254
0 0 0 0 0 0 0 0 0 0 0 0 16 0 0 0 0 0 0 0 0 0 0 0 3 1 12 35 77 251 321 35 74 164 256 385 397 310 269 237 417 488 63 43 126 180 70 60 103
0 0 0 0 0 0 0 0 0 0 0 0 0 0 0 0 0 0 0 0 0 0 0 0 0 0 0 17 6 285 151 7 128 260 182 359 483 375 219 167 254 11 2 6 15 27 8 61 11

GFSSGP_con_sbcape_024.txt.gz
CAPE
0 0 0 0 0 0 0 0 7 0 0 0 0 0 0 0 0 0 0 104 131 0 93 632 1203 1059 793 552 310 227 152 90 0 0 0 0 0 0 0 0 0 0 0 0 0 0 0 0 0
0 0 0 0 0 0 7 48 0 3 0 0 0 0 0 0 0 0 7 105 106 4 97 223 1338 1193 1005 747 547 443 356 258 41 0 0 0 0 0 0 0 0 0 0 0 1 3 3 2 0
0 0 0 0 51 28 107 24 12 0 0 0 0 0 0 0 0 0 54 152 130 33 66 282 1466 1317 1168 967 802 719 609 542 161 43 27 12 1 3 5 0 2 9 2 1 1 6 8 13 25
0 0 0 0 18 98 126 25 0 0 0 0 0 0 0 0 0 0 75 165 98 61 83 374 1605 1497 1354 1179 1170 1102 960 685 449 183 81 40 27 195 414 186 311 336 227 143 79 85 139 38 38
0 0 0 0 0 3 129 75 13 0 0 0 0 0 0 0 0 0 62 144 59 118 112 373 1690 1716 1617 1508 1448 1433 1318 1145 989 465 242 244 532 813 765 731 656 568 423 323 343 287 478 274 316
0 0 0 0 0 0 16 12 7 7 0 0 0 0 0 0 0 0 21 200 126 121 196 498 1653 1850 1771 1691 1643 1600 1534 1390 1311 1056 1061 1092 1178 1311 990 810 671 517 251 267 356 402 378 290 309
0 0 0 0 0 0 0 0 0 6 8 0 0 0 0 0 0 0 5 123 256 206 237 498 1167 1653 1945 1836 1775 1770 1644 1582 1613 1568 1521 1565 1612 1371 948 730 462 119 65 87 144 309 365 267 200
0 0 0 0 0 0 0 2 8 11 29 0 0 0 9 24 3 1 40 42 233 251 313 373 1014 1133 1195 1204 1991 1939 1959 1879 1934 1986 1949 1944 1672 1207 696 449 134 73 43 8 25 83 167 365 290
0 0 0 0 0 2 4 10 1 0 4 0 0 0 10 5 6 52 75 99 93 160 296 378 544 888 1134 982 1252 2002 1874 1910 2071 1814 1785 1673 838 466 488 348 68 40 0 2 6 6 8 42 127
0 0 0 0 0 5 8 0 0 0 3 1 6 12 11 39 58 87 109 82 107 175 185 387 603 906 1121 797 985 1646 1142 1268 1237 1064 1042 1107 619 505 318 256 77 41 0 0 0 3 11 178 154
0 0 0 0 0 2 0 0 0 0 0 1 0 1 21 41 52 84 126 99 63 109 203 299 770 1057 1186 930 1015 1386 1365 1197 1179 1294 1130 769 469 488 512 462 357 274 103 35 11 25 42 37 223
0 0 0 0 0 0 1 2 0 0 0 0 0 5 6 8 39 41 56 92 97 67 152 359 579 1162 1512 1025 1039 1201 1104 1013 857 729 926 890 691 587 655 465 261 250 178 55 26 39 47 44 36
0 0 0 0 0 0 8 1 0 0 0 0 0 0 4 3 0 3 11 24 133 95 130 395 746 1384 1593 1493 1180 1220 885 634 471 425 489 742 579 618 678 601 440 198 95 30 35 50 81 70 112
0 0 0 0 0 0 0 0 0 0 0 0 0 0 0 0 0 0 0 0 91 143 171 372 796 1298 1469 1655 1558 1099 749 386 479 262 432 782 717 745 750 759 426 407 413 175 68 74 95 100 112
0 0 0 0 0 0 0 0 0 0 0 0 0 0 0 0 0 0 0 0 42 167 255 384 798 1217 1734 1502 1279 856 459 457 252 330 723 787 929 863 994 755 624 592 880 522 324 75 117 106 112
0 0 0 0 0 0 0 0 0 0 0 0 0 0 0 0 0 0 0 0 6 172 230 390 388 976 1482 1384 939 509 386 327 301 568 705 910 992 987 966 752 675 827 853 536 291 96 121 126 126
0 0 0 0 0 0 0 0 0 0 0 0 0 0 0 0 0 0 0 0 34 141 263 241 430 842 1159 1111 593 545 466 375 459 650 708 827 1002 968 924 1109 857 782 757 701 532 288 196 165 297
0 0 0 0 6 0 0 0 0 0 0 0 0 0 0 0 0 0 0 0 1 71 140 197 347 671 819 630 511 358 331 354 496 661 765 854 1062 926 1045 1152 829 224 149 685 374 305 369 277 597
0 0 0 0 0 0 0 0 0 0 0 0 0 0 0 0 0 0 0 0 0 0 73 211 365 664 524 464 311 280 213 278 471 659 795 939 973 761 979 917 38 245 242 197 391 597 389 825 681
0 0 0 0 0 0 0 0 0 0 0 0 0 0 0 0 0 0 0 0 0 32 126 279 419 577 474 327 308 204 177 334 484 585 872 877 884 749 736 726 555 156 21 210 340 638 825 677 872
0 0 0 0 0 0 0 0 0 0 0 0 0 0 0 0 0 0 0 3 13 85 202 273 472 567 446 422 439 543 676 556 591 707 819 895 821 746 744 549 161 227 253 397 815 711 517 804 979
0 0 0 0 0 0 0 0 0 0 0 0 0 0 0 0 0 0 6 30 108 139 189 352 472 570 503 420 280 363 250 203 424 573 588 676 607 557 618 509 494 493 664 827 845 651 687 835 969
0 0 0 0 0 0 0 0 0 0 0 0 0 0 0 0 0 18 24 77 76 110 229 375 511 469 394 452 396 582 398 441 502 435 630 723 679 515 339 641 576 536 970 871 666 457 513 1001 1064
0 0 0 0 0 0 0 0 0 0 0 0 0 0 0 0 0 20 39 26 78 137 229 373 389 361 494 536 723 625 728 494 433 467 503 634 817 754 532 500 626 740 772 583 563 563 604 860 1067
0 0 0 0 0 0 0 0 0 0 0 0 0 0 24 15 62 59 49 91 111 146 207 261 283 400 423 518 625 562 805 673 682 638 588 652 741 810 665 682 707 750 669 656 596 683 651 826 1008
0 0 0 0 0 0 0 0 0 0 0 0 0 0 8 27 151 133 99 135 119 136 167 130 231 273 323 426 558 657 669 558 496 583 512 451 738 716 657 699 678 690 667 641 675 688 763 852 1022
0 0 0 0 0 0 1 0 0 0 0 0 0 0 0 82 204 150 164 135 129 165 184 195 121 115 252 495 545 760 720 678 585 574 446 488 612 500 625 620 650 689 641 693 752 890 830 833 932
0 0 0 0 0 0 0 0 0 0 0 0 0 0 19 171 178 158 151 145 145 195 220 160 46 179 357 410 498 676 725 575 555 652 414 398 479 361 535 607 586 640 655 670 720 708 731 764 662
0 0 0 0 0 0 0 0 0 0 0 0 15 77 253 196 170 164 130 138 159 197 172 29 97 187 277 299 413 688 655 408 503 525 479 436 435 401 431 478 526 593 692 702 712 609 550 462 626
0 0 0 0 0 0 0 0 0 0 8 13 192 240 234 182 157 116 101 97 172 167 68 13 105 86 160 206 241 631 559 367 528 494 588 587 528 330 246 323 482 393 397 543 369 411 422 412 344

GFSSGP_con_sbcape_027.txt.gz
CAPE
0 0 0 0 0 0 0 0 6 10 0 0 0 0 0 0 0 1 32 46 0 9 360 403 921 851 639 413 241 166 117 34 0 0 0 0 0 0 0 0 0 0 0 0 0 0 0 0 0
0 0 0 0 0 0 2 0 30 47 49 0 0 0 1 0 0 0 4 68 5 24 483 134 1046 1004 879 741 489 395 302 140 39 0 0 0 0 0 0 0 0 0 0 0 1 0 2 5 0
0 0 0 0 0 1 74 74 38 40 7 0 0 0 0 1 0 0 66 95 45 26 449 255 1156 1128 1095 960 715 606 526 407 115 25 16 10 9 8 8 12 21 14 46 40 12 8 11 10 28
0 0 0 0 12 94 56 118 90 12 43 0 0 0 0 0 0 0 39 47 27 24 165 1080 1207 1347 1287 1141 962 873 748 645 386 150 129 75 62 82 54 39 65 163 236 235 192 170 98 89 107
0 0 0 0 0 0 34 49 88 59 65 15 9 0 9 1 0 0 43 46 30 29 53 716 1494 1519 1537 1366 1174 1116 1004 921 792 367 242 188 352 449 366 310 525 728 625 513 398 389 413 310 270
0 0 0 0 0 1 24 30 82 93 70 52 0 0 7 1 0 0 3 87 50 35 74 201 1672 1657 1622 1526 1367 1339 1287 1208 1125 993 830 773 907 869 650 788 984 721 566 303 202 230 433 398 297
0 0 0 0 1 1 8 10 32 37 33 49 9 0 14 75 4 0 14 53 111 64 119 150 1667 1664 1746 1666 1528 1535 1551 1533 1442 1360 1196 1330 1239 1398 1242 1200 827 615 277 87 88 91 151 366 284
0 0 0 0 0 0 2 11 1 28 47 14 0 2 40 41 15 31 34 61 67 147 131 192 633 1671 1374 939 1855 1807 1806 1762 1630 1615 1548 1661 1453 1595 1406 1225 758 341 90 108 11 4 46 145 378
0 0 0 0 0 2 7 5 28 16 18 26 4 8 1 10 0 7 28 44 84 84 187 258 214 693 1168 777 1125 1891 1641 1627 1758 1454 1578 1690 749 490 1047 1018 635 322 176 52 44 27 0 2 72
0 0 0 0 0 2 17 14 4 37 16 16 3 0 31 33 13 53 43 20 49 132 123 197 383 728 945 634 1308 1691 1054 1041 964 893 1046 1402 1251 782 531 674 279 256 226 115 26 5 15 25 0
0 0 9 30 44 26 31 39 28 26 54 27 54 0 24 25 53 61 20 14 46 86 148 196 1511 1768 1244 902 839 1599 1383 1087 1339 1475 2108 1819 933 543 539 676 802 579 695 415 297 219 131 46 23
0 0 13 16 34 25 19 46 58 40 28 29 0 0 0 20 19 22 6 3 20 44 191 127 611 2054 2310 1427 842 1075 1457 1512 1232 1198 2139 1739 938 919 828 690 571 638 438 475 326 136 481 88 36
0 0 0 0 0 9 1 1 14 5 23 12 0 0 0 5 11 0 0 0 10 10 58 149 873 2376 2573 2872 1178 1351 1593 1180 1184 972 1051 996 701 1219 808 967 709 1017 542 388 238 499 536 421 99
0 1 8 2 1 11 3 0 0 2 2 0 0 0 0 0 0 0 0 0 13 107 78 198 730 2609 2152 2484 3002 2340 2404 1197 818 617 589 989 874 1366 825 1119 945 696 722 555 450 277 320 354 248
0 4 8 1 8 1 2 0 0 0 0 0 0 0 0 0 0 0 0 49 35 22 559 826 1447 2559 2810 2634 2684 2178 1411 1094 759 536 826 592 1135 1215 1173 892 987 1067 1339 773 890 600 692 259 168
0 15 2 0 0 5 47 0 0 0 0 0 0 0 0 0 0 0 0 73 101 326 620 400 364 1197 2446 2698 2393 1823 990 767 392 375 477 998 1162 1193 1108 1064 971 1201 1171 1236 728 689 561 359 218
0 0 0 0 1 14 61 0 0 0 3 2 0 0 0 0 0 34 0 0 116 397 448 550 1119 966 2013 2709 2006 1749 1665 620 357 445 573 804 1094 1021 1347 1186 1196 1257 1139 1363 804 779 697 670 239
0 0 0 0 0 17 25 4 1 8 0 0 0 7 0 0 0 7 30 0 11 132 325 812 954 1615 2568 2051 1821 806 578 547 383 538 618 784 987 1201 1335 1261 1337 1234 953 236 403 657 717 758 771
0 0 0 0 0 15 0 2 31 9 0 0 0 7 1 0 0 0 0 122 108 157 555 749 779 2228 1992 1331 793 602 491 597 423 499 689 845 943 952 1413 1245 1139 886 409 586 606 181 107 914 593
0 0 0 0 0 21 3 27 11 1 0 0 0 0 0 0 0 0 0 334 189 333 530 624 807 1501 1471 982 1049 660 610 384 413 540 795 941 948 1385 1119 1213 1120 836 577 439 328 565 544 688 820
0 0 0 0 0 7 10 2 0 0 0 0 0 0 0 0 0 0 0 407 327 419 565 674 875 1135 1410 1352 1024 566 557 652 615 417 692 964 959 966 1133 1003 943 729 911 516 877 848 658 823 904
0 0 0 0 0 1 0 0 0 0 0 0 0 0 0 0 0 0 143 507 457 514 595 731 908 986 816 1046 1224 1282 580 338 446 553 413 1031 771 765 670 738 643 575 781 907 939 1123 948 992 889
0 0 0 0 0 0 0 0 0 0 0 0 0 0 0 0 0 0 306 504 554 512 542 792 855 731 773 701 919 595 462 215 296 310 656 1006 918 741 638 614 655 965 1262 781 892 822 846 1261 1206
0 0 0 1 0 0 0 0 0 0 0 0 0 0 0 0 0 92 443 563 497 430 614 752 777 768 638 504 650 772 711 445 411 639 702 1167 1259 1057 803 428 850 656 927 816 683 907 680 1047 1249
0 0 0 1 0 0 0 0 0 0 0 0 0 0 0 0 207 415 538 422 433 550 602 657 623 670 571 607 575 590 682 752 845 804 836 1068 976 970 963 760 727 906 797 702 828 1031 662 921 1094
0 0 0 0 0 0 0 0 0 0 0 0 0 0 62 242 445 504 441 459 466 505 544 454 592 515 474 471 513 514 665 984 1159 842 655 816 766 1118 705 650 719 712 632 698 645 1004 1228 918 1129
0 0 0 0 5 0 3 8 0 0 0 0 0 0 274 306 578 531 500 494 467 481 467 517 497 428 386 415 487 608 741 699 799 713 573 709 755 598 546 620 692 625 628 542 622 927 715 991 791
0 0 1 0 0 3 20 61 46 0 0 0 0 0 108 498 614 538 524 514 459 451 477 465 348 327 309 393 416 718 664 735 977 633 661 984 791 371 513 649 728 620 691 639 856 1055 791 930 324
0 2 0 0 0 15 42 34 52 0 0 3 21 0 170 621 593 569 488 479 456 458 415 332 249 219 332 346 392 1135 1024 587 959 814 613 615 271 342 383 530 579 605 693 742 939 963 633 693 434
0 0 0 0 0 0 37 55 0 0 9 64 49 28 482 598 563 526 469 452 477 457 353 151 210 209 267 271 328 1067 473 457 824 676 663 904 809 172 175 356 463 373 401 712 573 545 617 507 468

GFSSGP_con_sbcape_030.txt.gz
CAPE
0 0 0 0 0 0 0 0 0 55 0 0 0 0 0 0 0 0 20 36 150 500 148 187 658 479 324 188 102 83 55 43 2 0 0 0 0 0 0 0 0 0 0 0 0 0 0 0 0
0 0 0 0 0 0 0 0 1 25 1 0 0 0 0 0 0 1 0 17 108 645 276 116 762 618 540 382 282 217 190 120 79 25 0 0 0 0 0 0 0 0 0 0 0 0 0 2 0
0 0 0 0 0 0 0 3 42 36 0 0 0 0 0 0 0 5 101 64 131 769 443 207 879 844 822 654 539 437 387 293 191 24 0 0 0 0 0 0 0 0 16 69 51 37 19 12 18
0 0 0 0 0 1 2 30 110 11 47 0 0 0 0 0 0 0 30 14 0 304 460 867 909 1014 1033 903 745 632 574 469 250 107 72 53 18 71 129 0 0 21 88 210 265 262 219 143 356
0 0 0 0 0 0 0 0 31 64 30 1 2 0 0 0 0 0 37 34 30 4 364 1172 1046 1178 1222 1200 923 804 734 636 534 442 273 366 382 378 334 250 193 397 592 581 493 415 477 381 353
0 0 0 0 0 0 0 0 0 19 49 49 0 0 0 3 0 0 15 101 9 44 149 1563 1268 1266 1327 1311 1101 953 844 841 819 734 719 671 634 646 625 699 634 862 661 497 348 169 218 605 604
0 0 0 0 0 0 0 1 3 0 13 5 0 0 5 20 25 13 26 94 142 86 82 1909 1434 1364 1578 1437 1208 1104 1016 1016 999 955 1054 978 979 1074 1091 1228 1127 969 785 465 146 104 95 136 438
0 0 0 0 0 0 0 0 0 0 0 15 0 6 2 23 18 3 0 27 93 120 78 1825 1757 1283 1267 1314 1537 1394 1321 1312 1276 1332 1364 1248 1312 1293 1437 1476 1520 1103 777 307 165 106 51 43 212
0 0 0 0 0 0 0 0 0 0 3 19 4 0 0 0 0 0 3 0 8 76 172 760 1967 1900 1438 961 1239 1653 1507 1629 1602 1548 1539 1393 827 565 912 1087 1405 1334 809 416 309 145 125 78 34
0 0 0 0 0 0 0 0 0 0 2 12 2 7 0 6 18 1 11 42 57 16 185 243 372 1653 1658 1036 849 1430 1387 1313 1303 929 970 1111 844 980 841 613 1625 973 764 502 341 188 144 62 0
0 0 0 0 0 2 14 2 2 2 7 29 9 6 8 0 15 10 17 38 47 4 18 376 695 1320 1462 977 859 1647 1317 1115 985 879 991 1454 1465 1333 1049 650 712 710 636 378 568 296 109 94 9
0 0 0 0 0 7 0 2 0 0 13 25 60 46 41 3 12 0 2 17 30 10 185 399 1080 1678 1245 994 994 1803 1711 1303 1094 1082 1539 1521 1688 1572 1067 751 1053 707 639 730 500 267 240 158 474
0 0 0 0 0 6 3 0 0 0 9 4 13 17 9 20 12 7 20 4 47 75 255 551 1640 1493 1869 2007 1124 1563 1778 1510 1320 1565 1683 1716 1475 1255 1329 1161 1343 1279 914 849 800 656 554 333 213
0 0 0 0 0 0 0 0 0 0 1 2 0 0 0 34 27 12 46 96 291 291 378 719 2099 1838 1914 1403 2324 2123 1945 1746 1640 1560 1610 1673 1391 1300 1405 1698 1411 1240 1145 771 825 582 548 275 206
0 0 0 0 0 0 10 0 0 0 0 0 0 0 3 15 14 6 0 197 590 380 662 992 2056 2470 2226 2406 2016 3597 2402 2171 1738 1521 1710 1446 1382 1485 1878 1588 1407 1087 1055 964 758 628 708 525 173
0 0 0 0 0 0 11 3 0 0 0 0 4 10 19 34 16 25 6 136 763 954 633 1657 357 2547 2612 2698 2499 2106 2166 1976 1785 1182 1387 1321 1781 1678 1830 1498 1200 1135 1408 1041 712 591 532 623 389
0 0 0 0 0 0 33 6 0 0 3 0 2 8 6 6 3 58 60 108 439 1040 1939 1730 1883 2608 2643 2934 2721 2359 2882 1792 1325 1362 1181 1371 1500 1529 1496 1262 1270 1450 1104 863 685 562 557 474 410
0 0 0 0 0 4 20 16 0 0 37 22 37 25 0 0 0 41 127 165 411 988 1080 2276 2651 3129 2597 2705 2689 2189 1945 1421 1354 1207 1278 1821 1532 1567 1539 1263 1570 1309 977 935 584 442 476 328 230
0 0 0 0 0 0 26 0 0 0 17 0 19 4 0 0 68 137 78 226 1049 813 957 2329 2755 2992 2464 2442 2054 1538 1345 1131 963 1259 1414 1445 1496 1357 1556 1454 1175 1011 971 701 520 434 417 43 89
0 0 0 0 0 5 21 7 1 0 1 15 4 3 6 3 2 77 256 525 1215 1398 1730 1981 2055 2577 2405 2312 1978 1259 1060 794 948 1029 1498 1507 1298 1223 1420 1367 1159 1065 843 648 527 448 187 97 206
0 0 0 0 0 0 2 14 0 0 0 2 0 0 0 0 0 0 25 1300 1140 1229 1454 1480 1982 2406 2262 1704 1740 2434 1542 1759 1487 1553 1342 1619 1178 1174 1269 995 1130 890 715 557 520 533 523 539 560
0 0 0 0 0 0 0 1 0 0 0 0 2 0 0 0 2 1 96 1125 1169 971 1088 1462 1940 2008 1913 2038 1623 1579 1049 1065 1328 1104 1264 1514 1448 1269 1050 1053 581 729 685 729 714 624 428 439 310
0 0 0 0 0 0 0 0 0 0 0 0 0 0 0 0 13 42 457 1163 900 1000 1146 1493 1666 1562 1808 1870 1447 1575 1718 1610 1524 1125 1658 1451 1297 1030 813 909 939 805 888 736 610 632 436 594 431
0 0 0 0 0 14 0 0 0 0 0 0 0 0 0 2 1 34 1012 993 972 950 1100 1404 1389 1560 1429 1620 2131 1823 1645 1479 1547 1265 1477 1368 1483 1130 1097 781 877 929 853 646 913 727 636 539 492
0 5 0 0 0 0 0 0 0 0 0 0 0 0 0 6 15 824 990 900 902 966 1184 1282 1276 1300 1239 1479 1489 1487 1546 1221 1204 1317 1257 1237 1316 1062 1108 911 904 882 853 812 735 703 728 507 403
0 0 0 0 0 0 0 0 0 0 0 0 0 0 0 82 591 939 940 885 821 1089 1118 1061 1193 1088 1065 1177 1279 1425 1639 1362 1408 1444 1187 1249 1250 1104 983 754 685 812 813 594 783 741 423 419 590
0 3 0 1 0 0 0 0 0 0 0 0 0 0 155 763 943 928 863 846 967 1036 1098 1029 1036 945 980 1056 1316 1416 1458 1533 1389 1350 1247 1234 1194 834 812 670 864 774 700 745 739 416 557 506 376
1 0 0 9 0 0 0 0 0 12 6 29 0 0 665 933 829 767 823 984 974 1013 1113 1093 1007 889 895 990 986 771 1183 1178 1309 1227 1091 919 1063 500 876 907 839 788 641 637 621 548 997 446 266
2 0 7 2 1 0 0 0 221 123 41 0 0 0 640 894 782 852 784 963 923 861 830 1002 845 684 757 834 1215 1207 1226 755 1195 837 974 990 718 790 541 520 901 703 591 458 548 702 337 227 150
2 0 5 21 1 2 0 0 23 6 22 2 0 4 657 798 765 796 826 810 768 791 742 740 621 463 585 620 870 1214 682 698 923 929 983 875 492 563 557 502 605 400 605 872 500 434 605 517 299

GFSSGP_con_sbcape_033.txt.gz
CAPE
0 0 0 0 0 0 0 0 0 0 0 0 0 0 0 0 0 0 0 105 83 42 189 388 666 443 382 276 155 98 65 41 9 0 0 0 0 0 0 0 0 0 0 0 0 0 0 0 0
0 0 0 0 0 0 0 0 1 18 4 0 0 0 0 0 0 0 0 257 86 19 91 135 720 581 485 325 228 140 108 84 63 0 0 0 0 0 0 0 0 0 0 0 0 0 0 0 0
0 0 0 0 0 0 0 0 1 1 1 0 0 0 0 0 0 0 0 406 99 0 33 82 812 637 579 380 269 206 175 185 86 0 0 0 0 0 0 0 0 0 0 2 32 27 22 1 4
0 0 0 0 0 0 0 0 0 1 0 0 0 0 0 0 0 0 232 327 214 80 2 262 826 725 634 509 398 361 407 323 200 113 55 9 20 20 23 23 0 0 26 72 164 225 232 196 159
0 0 0 0 0 0 0 0 22 6 2 0 0 0 0 0 0 1 65 299 245 191 13 467 946 1000 980 820 663 572 556 511 482 437 253 244 315 346 209 107 88 138 246 371 435 388 307 346 349
0 0 0 0 0 0 0 0 86 4 1 8 0 0 0 0 0 5 0 0 189 162 50 460 967 1238 1167 1057 925 748 718 649 676 661 653 636 659 641 579 331 251 382 584 673 387 361 204 219 309
0 0 0 0 0 0 0 0 0 0 0 0 0 0 0 0 0 0 0 0 0 95 87 410 512 942 1476 1229 1070 961 827 782 702 697 796 879 876 816 837 853 740 700 990 703 532 285 150 149 186
0 0 0 0 0 0 0 0 0 0 0 0 0 0 0 0 0 0 0 0 0 53 353 338 406 439 800 820 1394 1173 1023 968 866 858 920 1015 1022 1039 1164 1092 1231 1069 1032 923 577 235 211 137 139
1 0 0 0 0 0 0 0 0 0 0 0 0 0 0 0 0 0 0 0 0 7 628 494 404 427 488 575 989 1290 1341 1162 1153 1079 1093 1035 644 755 860 1062 1154 1368 1388 1155 697 381 326 210 163
4 0 0 0 0 0 0 0 0 0 0 0 0 0 0 0 0 0 0 0 0 0 592 707 561 511 535 648 641 803 747 695 807 762 742 756 576 296 406 681 1492 1669 1702 1330 954 772 410 254 7
0 0 0 0 0 0 0 0 0 0 0 0 0 0 0 0 0 0 0 0 0 0 69 855 713 606 595 659 563 724 692 723 825 674 522 715 505 336 575 344 940 1085 1213 584 695 485 320 40 0
0 0 0 0 0 0 0 0 0 0 0 0 0 0 0 0 0 0 0 0 0 0 0 277 929 984 758 624 474 797 763 724 729 728 357 563 540 658 602 259 283 370 377 208 64 208 129 5 14
0 0 0 0 0 0 0 0 0 0 0 0 0 0 0 0 0 0 0 0 0 0 0 3 242 1153 900 515 403 773 802 788 646 568 497 503 790 778 373 155 123 199 126 265 206 190 165 16 1
0 0 0 0 0 0 0 0 0 0 0 0 0 0 0 0 0 0 0 0 0 0 0 0 380 638 768 569 448 890 963 926 665 641 652 894 896 579 419 437 461 343 231 0 48 28 2 0 0
0 0 0 0 0 0 0 0 0 0 0 0 0 0 0 0 0 0 0 0 0 21 0 0 9 499 806 644 563 925 1043 897 785 706 922 1189 752 485 513 370 452 437 309 223 87 68 22 19 0
0 0 0 0 0 0 0 0 0 0 0 0 0 0 0 0 0 0 0 0 18 10 0 0 1454 1024 1127 690 1201 1086 915 822 597 456 810 750 447 390 474 480 392 339 265 84 77 44 40 30 16
0 0 0 0 0 0 0 0 0 0 0 0 0 0 0 0 0 0 0 0 0 14 0 110 813 1280 1438 1375 1115 1325 1179 492 336 144 239 566 400 573 549 561 440 348 307 209 170 49 49 26 41
0 0 0 0 0 0 0 0 0 0 0 0 0 0 0 0 0 0 0 0 1 90 401 346 1174 1566 1641 1601 1479 1277 706 428 288 222 198 399 547 665 598 524 434 410 215 120 118 88 13 15 28
0 0 0 0 0 0 0 0 0 0 0 0 0 0 0 0 0 0 0 0 82 119 378 953 1689 1597 1798 1607 1517 1162 678 407 399 195 248 515 547 709 694 589 449 436 295 169 132 68 43 9 8
0 0 0 0 0 0 0 0 0 0 0 0 0 0 0 0 0 0 0 2 135 282 918 1167 1658 1542 1446 1338 1066 771 429 229 153 231 263 409 562 436 424 354 375 115 256 177 73 72 5 0 0
0 0 0 0 0 0 0 0 0 0 0 0 0 0 0 0 0 0 0 216 262 544 706 815 1181 1456 1348 1275 799 482 221 151 228 226 345 442 394 396 368 351 159 309 246 70 16 41 41 10 5
0 0 0 0 0 0 0 0 0 0 0 0 0 0 0 0 0 0 0 301 395 593 588 964 1458 1305 926 731 672 595 237 350 170 144 246 562 369 536 491 408 229 121 69 84 66 94 107 83 80
0 0 0 0 0 0 0 0 0 0 0 0 0 0 0 0 0 0 0 424 458 482 794 1183 1181 943 946 492 520 234 103 177 226 276 357 445 345 348 353 287 213 208 64 24 29 54 69 8 22
0 0 0 0 0 0 0 0 0 0 0 0 0 0 0 0 0 18 347 444 477 709 920 945 924 820 769 438 474 136 152 260 102 272 113 36 178 272 369 315 169 119 54 51 9 11 20 57 117
0 0 0 0 0 0 0 0 0 0 0 0 0 0 0 0 8 343 414 440 525 723 813 803 731 678 444 808 369 400 154 154 253 235 213 323 354 410 318 134 131 54 40 74 66 50 58 82 108
0 0 0 0 0 0 0 0 0 0 0 0 0 0 0 12 276 329 372 346 557 769 756 695 627 509 542 309 338 355 245 223 334 264 291 283 169 186 70 39 31 129 114 83 23 40 20 60 30
0 0 0 0 0 0 0 0 0 0 0 0 0 3 271 381 341 350 268 410 650 677 554 633 498 459 489 356 272 335 360 318 264 174 128 239 158 5 19 4 66 112 68 17 13 30 112 97 18
0 0 0 0 0 0 0 0 0 0 0 0 0 39 336 317 286 252 255 522 599 553 460 508 444 385 401 337 213 257 356 299 264 53 47 148 157 34 13 163 193 117 93 71 66 39 61 9 28
0 0 0 0 0 0 0 0 0 0 0 0 0 309 311 219 238 233 440 485 496 478 440 443 362 347 323 162 182 270 312 294 119 147 154 41 21 21 138 289 231 92 174 115 35 37 100 42 33
0 0 0 0 0 0 0 0 0 0 0 0 37 366 276 216 263 314 379 419 375 358 419 325 214 185 263 190 314 290 368 247 114 111 124 0 40 0 12 136 184 182 125 10 24 22 47 59 52

GFSSGP_con_sbcape_036.txt.gz
CAPE
0 0 0 0 0 0 0 0 0 0 0 0 0 0 0 0 0 0 0 6 44 8 330 712 812 586 425 304 181 117 68 51 40 0 0 0 0 0 0 0 0 0 0 0 0 0 0 0 0
0 0 0 0 0 0 0 0 0 2 0 0 0 0 0 0 0 0 89 126 27 27 188 226 798 656 625 446 272 190 103 113 88 25 0 0 0 0 0 0 0 0 0 0 0 0 0 0 0
0 0 0 0 0 0 0 0 0 0 0 0 0 0 0 0 0 0 0 107 19 14 91 86 885 733 730 540 341 238 177 152 125 40 14 0 0 0 0 0 0 0 0 0 7 22 29 23 20
0 0 0 0 0 0 0 0 0 0 0 0 0 0 0 0 0 0 201 42 0 0 2 339 870 786 807 694 504 335 295 245 210 128 87 47 18 37 25 0 0 0 17 38 75 149 182 178 166
0 0 0 0 0 0 0 0 0 0 0 3 0 0 0 0 0 244 237 62 0 0 0 247 964 948 931 826 639 462 384 370 406 414 244 220 196 170 66 70 72 73 95 149 291 406 363 319 362
0 0 0 0 0 0 0 0 0 0 0 1 0 0 0 0 11 285 234 86 0 0 0 67 983 1015 938 859 678 547 548 528 586 606 582 499 485 482 263 207 151 161 301 464 545 390 384 324 273
0 0 0 0 0 0 0 0 0 0 0 2 0 0 0 0 0 72 209 123 30 0 0 33 285 706 1204 981 876 754 684 654 702 724 702 736 752 767 773 655 407 354 554 710 769 543 491 250 189
0 0 0 0 0 0 0 0 0 0 0 0 0 0 0 0 0 0 19 1 23 16 0 28 70 277 430 575 1259 1038 835 834 769 860 882 924 970 1001 968 836 881 662 811 1064 856 727 581 365 268
0 0 0 0 0 0 0 0 0 0 0 0 0 0 0 0 0 0 0 0 0 49 13 119 161 43 223 348 700 1206 1058 1032 938 888 953 850 608 595 626 768 843 896 1174 1380 1133 1086 767 480 312
0 0 0 0 0 0 0 0 0 0 0 0 0 0 0 0 0 0 0 0 0 48 141 204 237 170 132 226 301 689 569 526 563 472 454 531 422 315 574 732 1081 1175 1535 1735 1581 1322 738 596 87
0 0 0 0 0 0 0 0 0 0 0 0 0 0 0 0 0 0 0 0 0 1 173 324 291 242 211 136 232 640 454 390 444 431 363 500 403 351 443 304 426 835 1454 1108 1234 827 649 265 17
0 0 0 0 0 0 0 0 0 0 0 0 0 0 0 0 0 0 0 0 0 0 25 483 385 343 308 214 252 410 466 398 468 491 418 447 379 210 167 227 195 359 618 654 377 313 164 100 3
0 0 0 0 0 0 0 0 0 0 0 0 0 0 0 0 0 0 0 0 0 0 0 313 450 457 392 278 338 402 437 410 456 516 408 411 365 261 233 239 121 179 170 217 116 7 33 39 3
0 0 0 0 0 0 0 0 0 0 0 0 0 0 0 0 0 0 0 0 0 0 0 0 481 520 503 427 328 453 496 409 361 424 420 376 390 395 405 191 27 71 47 63 75 93 32 42 0
0 0 0 0 0 0 0 0 0 0 0 0 0 0 0 0 0 0 0 0 0 0 0 0 116 593 645 574 339 506 564 536 465 413 415 389 471 543 405 216 153 68 45 24 30 0 0 0 0
0 0 0 0 0 0 0 0 0 0 0 0 0 0 0 0 0 0 0 0 0 0 0 0 13 238 637 613 243 633 703 676 572 485 486 613 635 576 280 174 191 161 66 37 2 0 0 0 0
0 0 0 0 0 0 0 0 0 0 0 0 0 0 0 0 0 0 0 0 0 0 0 0 54 161 361 330 470 704 749 741 475 458 730 824 769 331 272 211 167 79 68 24 12 1 0 0 0
0 0 0 0 0 0 0 0 0 0 0 0 0 0 0 0 0 0 0 0 0 0 0 0 286 531 634 531 615 547 328 193 65 282 484 467 434 365 209 234 146 108 65 37 19 35 1 17 11
0 0 0 0 0 0 0 0 0 0 0 0 0 0 0 0 0 0 0 0 0 0 29 71 599 837 1097 889 910 502 295 70 17 66 319 398 194 183 120 172 104 92 98 51 0 2 17 18 0
0 0 0 0 0 0 0 0 0 0 0 0 0 0 0 0 0 0 0 0 0 50 120 506 908 1057 1217 1067 745 414 178 35 25 44 147 212 197 211 205 213 207 166 103 18 1 0 1 0 0
0 0 0 0 0 0 0 0 0 0 0 0 0 0 0 0 0 0 0 0 0 101 419 806 1061 1011 982 876 408 152 65 58 24 15 21 174 206 216 236 101 99 61 63 20 0 0 0 0 0
0 0 0 0 0 0 0 0 0 0 0 0 0 0 0 0 0 0 0 0 18 241 400 990 1006 1077 920 632 420 300 170 163 66 64 10 120 146 108 109 76 54 55 11 0 0 0 0 0 0
0 0 0 0 0 0 0 0 0 0 0 0 0 0 0 0 0 0 0 0 71 264 500 894 879 901 518 482 385 117 82 43 4 31 118 96 119 163 143 70 27 0 0 0 0 0 0 0 0
0 0 0 0 0 0 0 0 0 0 0 0 0 0 0 0 0 0 0 134 236 506 775 664 589 525 320 290 93 15 151 24 54 84 116 46 5 13 68 10 0 0 0 0 0 0 0 0 0
0 0 0 0 0 0 0 0 0 0 0 0 0 0 0 0 0 89 146 206 474 719 696 441 464 410 192 52 44 2 7 0 53 6 0 12 24 28 17 0 0 0 0 0 0 0 0 0 2
0 0 0 0 0 0 0 0 0 0 0 0 0 0 0 0 0 88 136 313 551 607 530 444 252 295 119 98 23 0 0 8 15 1 0 9 0 0 0 0 0 0 0 0 0 0 0 0 0
0 0 0 0 0 0 0 0 0 0 0 0 0 0 0 25 111 93 127 334 503 402 315 257 109 136 37 18 21 2 46 58 9 0 0 0 0 0 0 0 0 0 0 6 0 0 5 11 0
0 0 0 0 0 0 0 0 0 0 0 0 0 0 34 63 94 67 213 373 372 216 233 87 67 77 33 0 32 51 40 33 9 0 0 0 0 0 0 0 0 0 0 0 0 4 11 0 0
0 0 0 0 0 0 0 0 0 0 0 0 0 0 82 101 93 137 280 310 247 241 175 63 69 89 29 0 11 5 31 39 0 0 0 0 0 0 0 17 25 0 0 0 0 0 6 0 0
0 0 0 0 0 0 0 0 0 0 0 0 0 95 106 98 59 226 267 232 225 250 111 79 39 65 3 0 56 18 38 0 0 0 0 0 0 0 8 76 22 6 0 0 0 0 9 18 1

GFSSGP_con_sbcape_039.txt.gz
CAPE
0 0 0 0 0 0 0 0 0 0 0 0 0 0 0 0 0 0 0 3 9 23 294 850 912 702 462 373 302 187 87 7 14 0 0 0 0 0 0 0 0 0 0 0 0 0 0 0 0
0 0 0 0 0 0 0 0 0 0 0 0 0 0 0 0 0 0 0 15 27 92 359 491 960 762 607 441 376 249 144 100 58 6 0 0 0 0 0 0 0 0 0 0 0 0 0 0 0
0 0 0 0 0 0 0 0 0 0 0 0 0 0 0 0 0 0 0 26 6 82 267 272 1027 835 724 601 454 321 208 200 157 10 0 0 0 0 0 0 0 0 0 0 0 0 0 10 18
0 0 0 0 0 0 0 0 0 0 0 0 0 0 0 0 0 0 78 6 0 15 124 284 1049 882 901 774 605 462 309 272 258 128 44 13 0 18 0 0 0 0 0 0 0 95 130 150 148
0 0 0 0 0 0 0 0 0 0 0 0 0 0 0 0 1 110 53 13 0 0 3 152 1100 985 1090 852 599 586 440 361 374 350 181 104 126 80 36 1 25 38 69 154 190 259 385 459 483
0 0 0 0 0 0 0 0 0 0 0 0 0 0 0 0 4 135 36 2 0 0 0 0 1048 991 1104 1136 869 617 529 454 447 526 449 386 333 234 81 84 115 151 201 251 356 527 567 544 370
0 0 0 0 0 0 0 0 0 0 0 0 0 0 0 0 0 199 76 10 0 0 0 0 318 607 1254 1177 964 772 642 555 539 664 633 605 570 548 450 360 248 244 353 476 646 778 694 680 363
0 0 0 0 0 0 0 0 0 0 0 0 0 0 0 0 0 130 109 42 2 0 0 0 60 221 414 514 1205 1013 808 720 698 817 840 782 788 814 829 729 731 375 504 689 901 1015 887 758 497
0 0 0 0 0 0 0 0 0 0 0 0 0 0 0 0 0 0 0 0 4 7 0 0 3 46 148 183 430 1066 916 962 895 916 993 753 491 561 498 700 687 621 715 1055 1122 1172 1193 806 426
0 0 0 0 0 0 0 0 0 0 0 0 0 0 0 0 0 0 0 1 0 10 27 7 21 23 76 115 152 485 430 405 507 473 511 540 356 292 507 559 775 707 963 1370 1653 1602 1238 702 213
0 0 0 0 0 0 0 0 0 0 0 0 0 0 0 0 0 0 0 0 0 0 41 85 90 46 8 81 130 280 372 325 387 332 272 399 314 301 518 369 520 717 1076 1013 1156 1384 1023 375 143
0 0 0 0 0 0 0 0 0 0 0 0 0 0 0 0 0 0 0 0 0 0 0 123 146 83 31 36 102 142 321 275 263 308 216 257 226 147 237 243 148 200 474 959 748 583 409 288 170
0 0 0 0 0 0 0 0 0 0 0 0 0 0 0 0 0 0 0 0 0 0 0 13 166 135 104 58 94 152 284 241 182 258 266 202 199 50 101 86 97 94 163 461 381 245 160 97 26
0 0 0 0 0 0 0 0 0 0 0 0 0 0 0 0 0 0 0 0 0 0 0 0 159 174 162 173 170 196 211 259 212 264 302 228 164 15 26 66 42 53 72 110 158 100 32 14 15
0 0 0 0 0 0 0 0 0 0 0 0 0 0 0 0 0 0 0 0 0 0 0 0 77 160 194 275 252 283 281 293 263 280 306 299 184 65 33 59 15 12 14 39 46 82 38 12 0
0 0 0 0 0 0 0 0 0 0 0 0 0 0 0 0 0 0 0 0 0 0 0 0 0 192 243 305 312 319 409 413 351 292 321 343 285 248 121 100 54 15 9 10 17 33 23 0 0
0 0 0 0 0 0 0 0 0 0 0 0 0 0 0 0 0 0 0 0 0 0 0 0 0 86 339 381 368 302 458 507 458 357 351 380 366 366 143 123 45 35 10 0 0 0 0 0 0
0 0 0 0 0 0 0 0 0 0 0 0 0 0 0 0 0 0 0 0 0 0 0 0 0 0 145 129 139 285 447 452 337 428 513 559 571 318 172 127 49 5 3 0 0 0 0 0 0
0 0 0 0 0 0 0 0 0 0 0 0 0 0 0 0 0 0 0 0 0 0 0 0 0 9 78 286 405 319 485 207 208 400 587 597 487 303 223 125 28 2 5 9 0 0 6 1 0
0 0 0 0 0 0 0 0 0 0 0 0 0 0 0 0 0 0 0 0 0 0 0 0 0 213 290 492 236 227 100 22 108 261 485 473 423 308 202 28 7 0 16 0 0 2 0 0 0
0 0 0 0 0 0 0 0 0 0 0 0 0 0 0 0 0 0 0 0 0 0 0 0 120 450 449 275 13 0 0 2 20 31 91 241 340 214 117 21 17 2 0 0 1 0 0 0 0
0 0 0 0 0 0 0 0 0 0 0 0 0 0 0 0 0 0 0 0 0 0 19 274 476 562 398 288 124 164 84 80 2 0 0 51 96 94 92 40 0 0 0 0 0 0 0 0 0
0 0 0 0 0 0 0 0 0 0 0 0 0 0 0 0 0 0 0 0 0 0 140 456 606 634 312 205 143 41 34 0 0 0 3 0 2 28 10 1 1 0 0 0 0 0 0 0 0
0 0 0 0 0 0 0 0 0 0 0 0 0 0 0 0 0 0 0 0 0 25 405 451 594 320 216 137 18 55 43 0 4 0 0 0 0 0 3 0 0 0 0 0 0 0 0 0 0
0 0 0 0 0 0 0 0 0 0 0 0 0 0 0 0 0 0 0 0 39 277 301 346 381 154 55 29 12 3 0 0 24 0 0 0 0 0 0 0 0 0 0 0 0 0 0 0 0
0 0 0 0 0 0 0 0 0 0 0 0 0 0 0 0 0 0 0 23 195 278 229 243 194 0 0 0 0 0 0 0 0 0 0 0 0 0 0 0 0 0 0 0 0 0 0 0 0
0 0 0 0 0 0 0 0 0 0 0 0 0 0 0 0 0 0 27 169 297 207 42 10 0 0 0 0 0 0 0 0 0 0 0 0 0 0 0 0 0 0 0 0 0 0 0 0 0
0 0 0 0 0 0 0 0 0 0 0 0 0 0 0 0 0 16 123 155 81 29 0 0 0 0 0 0 0 0 0 0 0 0 0 0 0 0 0 0 0 0 0 0 0 0 0 3 0
0 0 0 0 0 0 0 0 0 0 0 0 0 0 0 0 1 99 191 83 33 0 0 0 0 0 0 0 0 0 0 0 0 0 0 0 0 0 0 0 0 0 0 0 0 0 0 0 0
0 0 0 0 0 0 0 0 0 0 0 0 0 0 0 0 35 144 117 47 39 0 0 0 0 0 0 0 0 0 0 0 0 0 0 0 0 0 0 0 0 0 0 0 0 0 5 0 0

GFSSGP_con_sbcape_042.txt.gz
CAPE
0 0 0 0 0 0 0 0 0 0 0 0 0 0 0 0 0 0 0 0 0 1 264 838 1180 954 689 513 375 256 125 47 9 0 0 0 0 0 0 0 0 0 0 0 0 0 0 0 0
0 0 0 0 0 0 0 0 0 0 0 0 0 0 0 0 0 0 0 0 0 45 315 374 1121 1025 856 663 516 403 222 143 77 38 0 0 0 0 0 0 0 0 0 0 0 0 0 0 0
0 0 0 0 0 0 0 0 0 0 0 0 0 0 0 0 0 0 0 2 2 78 260 238 1166 965 940 800 625 445 278 228 196 54 0 0 0 0 0 0 0 0 0 0 0 0 0 0 0
0 0 0 0 0 0 0 0 0 0 0 0 0 0 0 0 0 0 1 0 0 29 226 318 1159 955 971 930 776 541 329 286 228 129 59 10 0 22 12 0 0 0 0 0 7 56 88 104 116
0 0 0 0 0 0 0 0 0 0 0 0 0 0 0 0 0 21 7 1 1 12 119 222 1220 1054 1139 1099 927 656 505 437 353 273 176 127 154 106 35 16 6 4 33 66 99 180 243 410 400
0 0 0 0 0 0 0 0 0 0 0 0 0 0 0 0 3 35 31 0 0 0 35 75 1244 1117 1162 1175 1026 785 605 527 476 432 338 284 270 210 128 83 76 89 122 232 319 362 490 594 383
0 0 0 0 0 0 0 0 0 0 0 0 0 0 0 0 0 69 5 0 0 0 0 0 569 794 1352 1227 1079 906 702 592 598 542 476 445 435 373 299 282 211 203 278 337 445 646 876 771 513
0 0 0 0 0 0 0 0 0 0 0 0 0 0 0 0 2 34 8 0 0 0 0 0 90 305 415 750 1312 1170 882 753 698 734 682 630 604 556 490 424 535 326 408 546 721 901 1113 915 816
0 0 0 0 0 0 0 0 0 0 0 0 0 0 0 0 0 1 3 0 0 0 0 0 0 68 160 300 547 1290 937 963 888 874 906 600 341 372 308 493 497 642 623 839 952 1128 1415 1083 657
0 0 0 0 0 0 0 0 0 0 0 0 0 0 0 0 0 0 0 0 0 7 6 0 0 18 28 106 150 509 429 373 421 403 460 448 267 238 354 479 598 714 847 1102 1350 1519 1352 957 313
0 0 0 0 0 0 0 0 0 0 0 0 0 0 0 0 0 0 0 0 0 2 21 0 0 0 10 45 62 164 340 271 327 299 280 417 251 288 497 306 500 486 819 620 1135 1376 1312 659 236
0 0 0 0 0 0 0 0 0 0 0 0 0 0 0 0 0 0 0 0 0 0 0 6 5 0 0 9 36 69 244 255 249 281 234 297 272 139 262 261 179 336 422 652 672 678 743 531 224
0 0 0 0 0 0 0 0 0 0 0 0 0 0 0 0 0 0 0 0 0 0 0 0 40 39 22 0 8 43 95 221 180 194 219 208 222 112 35 137 62 57 45 307 499 421 372 271 158
0 0 0 0 0 0 0 0 0 0 0 0 0 0 0 0 0 0 0 0 0 0 0 0 1 64 48 12 2 19 15 119 133 132 200 185 126 52 0 2 19 3 13 36 252 253 230 192 42
0 0 0 0 0 0 0 0 0 0 0 0 0 0 0 0 0 0 0 0 0 0 0 0 0 4 53 38 21 0 22 99 149 130 170 218 89 22 0 0 0 3 4 30 81 51 8 17 0
0 0 0 0 0 0 0 0 0 0 0 0 0 0 0 0 0 0 0 0 0 0 0 0 0 0 17 59 95 74 68 108 174 152 220 264 115 40 3 0 0 0 0 0 6 23 47 63 28
0 0 0 0 0 0 0 0 0 0 0 0 0 0 0 0 0 0 0 0 0 0 0 0 0 0 0 53 110 113 121 185 172 165 291 307 245 138 52 16 5 0 0 0 0 0 50 18 1
0 0 0 0 0 0 0 0 0 0 0 0 0 0 0 0 0 0 0 0 0 0 0 0 0 0 0 6 4 21 111 199 210 205 262 297 307 264 91 56 31 8 0 0 0 0 0 6 9
0 0 0 0 0 0 0 0 0 0 0 0 0 0 0 0 0 0 0 0 0 0 0 0 0 0 0 9 21 31 287 187 221 238 304 321 349 322 222 128 66 0 0 4 0 0 0 11 9
0 0 0 0 0 0 0 0 0 0 0 0 0 0 0 0 0 0 0 0 0 0 0 0 0 0 0 4 1 56 30 29 99 243 440 508 455 273 340 251 39 0 0 0 0 1 1 2 5
0 0 0 0 0 0 0 0 0 0 0 0 0 0 0 0 0 0 0 0 0 0 0 0 0 0 0 0 0 0 0 1 14 125 219 318 401 343 371 30 1 0 0 0 2 1 0 1 2
0 0 0 0 0 0 0 0 0 0 0 0 0 0 0 0 0 0 0 0 0 0 0 0 0 0 0 0 6 37 95 199 11 20 39 166 239 196 24 0 0 0 0 0 0 1 0 0 0
0 0 0 0 0 0 0 0 0 0 0 0 0 0 0 0 0 0 0 0 0 0 0 0 41 82 9 4 4 0 0 0 0 1 17 2 9 28 7 0 0 0 0 0 0 1 1 0 0
0 0 0 0 0 0 0 0 0 0 0 0 0 0 0 0 0 0 0 0 0 0 0 71 154 54 0 3 0 0 0 0 0 0 0 0 0 0 0 0 0 0 0 0 0 0 0 0 0
0 0 0 0 0 0 0 0 0 0 0 0 0 0 0 0 0 0 0 0 0 0 38 145 106 21 3 0 0 0 0 0 0 0 0 0 0 0 0 0 0 0 0 0 0 0 0 0 0
0 0 0 0 0 0 0 0 0 0 0 0 0 0 0 0 0 0 0 0 0 15 128 119 20 3 0 0 0 0 0 0 0 0 0 0 0 0 0 0 0 0 0 0 0 0 0 0 0
0 0 0 0 0 0 0 0 0 0 0 0 0 0 0 0 0 0 0 0 33 42 61 1 0 0 0 0 0 0 0 0 0 0 0 0 0 0 0 0 0 0 0 0 0 0 0 0 1
0 0 0 0 0 0 0 0 0 0 0 0 0 0 0 0 0 0 0 20 46 1 0 0 0 0 0 0 0 0 0 0 0 0 0 0 0 0 0 0 0 0 0 0 0 0 0 0 0
0 0 0 0 0 0 0 0 0 0 0 0 0 0 0 0 0 0 0 16 7 0 0 0 0 0 0 0 0 0 0 0 0 0 0 0 0 0 0 0 0 0 0 0 0 0 0 2 0
0 0 0 0 0 0 0 0 0 0 0 0 0 0 0 0 0 11 15 35 0 0 0 0 0 0 0 0 0 0 0 0 0 0 0 0 0 0 0 0 0 0 0 0 0 0 0 3 0

GFSSGP_con_sbcape_045.txt.gz
CAPE
0 0 0 0 0 0 0 0 0 0 0 0 0 0 0 0 0 0 0 0 58 97 461 963 1284 971 750 456 336 228 156 106 75 45 46 37 28 0 0 0 0 0 0 0 0 0 0 0 0
0 0 0 0 0 0 0 0 0 0 0 0 0 0 0 0 0 0 0 9 54 228 633 281 1403 1067 946 685 510 331 201 123 84 51 34 26 42 14 0 0 0 0 0 0 0 0 0 0 0
0 0 0 0 0 0 0 0 0 0 0 0 0 0 0 0 0 0 3 9 62 302 361 454 1525 1198 1140 854 656 463 315 210 173 100 63 20 36 37 28 12 0 0 0 0 0 0 0 0 0
0 0 0 0 0 0 0 0 0 0 0 0 0 0 0 0 0 0 62 33 109 254 233 402 1489 1368 1258 1072 818 617 440 341 297 186 157 134 84 100 50 23 3 0 0 0 9 48 61 70 81
0 0 0 0 0 0 0 0 0 0 0 0 0 0 0 0 0 93 174 143 114 223 305 208 1418 1428 1388 1315 1114 820 522 445 409 318 266 213 180 176 140 86 18 28 46 48 46 124 201 263 400
0 0 0 0 0 0 0 0 0 0 0 0 0 0 0 0 47 186 166 289 179 278 373 217 1150 1362 1351 1305 1271 980 617 535 510 432 369 313 302 263 209 185 118 87 123 162 220 305 353 502 397
0 0 0 0 0 0 0 0 0 0 0 0 0 0 0 0 23 242 206 235 259 252 369 313 467 979 1246 1370 1238 1062 795 674 598 509 415 412 471 401 330 294 274 208 328 358 461 513 632 611 492
0 0 0 0 0 0 0 0 0 0 0 0 0 0 0 0 128 337 218 176 136 237 261 220 434 579 427 519 1407 1250 998 860 713 676 614 587 578 547 444 341 412 368 411 498 626 714 932 902 626
0 0 0 0 0 0 0 0 0 0 0 0 0 0 0 0 210 297 299 241 155 61 89 116 65 479 453 371 665 1338 1041 1062 926 842 837 561 197 219 211 240 524 713 634 738 794 1001 1281 1163 789
0 0 0 0 0 0 0 0 0 0 0 0 0 0 0 0 0 70 258 261 267 312 231 18 47 217 466 192 577 871 550 475 363 283 478 502 288 319 185 310 561 927 906 1041 1185 1318 1328 1181 692
0 0 0 0 0 0 0 0 0 0 0 0 0 0 0 0 0 0 0 31 201 285 287 186 40 83 242 207 242 658 936 826 824 545 984 824 413 428 395 312 440 468 806 473 753 932 1204 1045 916
0 0 0 0 0 0 0 0 0 0 0 0 0 0 0 0 0 0 0 0 0 0 74 311 214 80 257 253 182 254 497 719 550 530 934 799 769 513 436 354 283 605 446 605 799 929 1231 1412 1271
0 0 0 0 0 0 0 0 0 0 0 0 0 0 0 0 0 0 0 0 0 0 0 12 352 509 482 450 204 314 375 427 612 429 681 631 378 600 467 475 326 455 693 813 772 994 1250 1399 1462
0 0 0 0 0 0 0 0 0 0 0 0 0 0 0 0 0 0 0 0 0 0 0 0 11 928 487 470 571 403 459 373 409 395 512 722 446 704 485 544 520 649 562 506 533 828 1265 1783 1438
0 0 0 0 0 0 0 0 0 0 0 0 0 0 0 0 0 0 0 0 0 0 0 9 13 17 858 888 786 531 358 326 362 372 434 516 619 575 512 384 498 499 573 572 549 735 1157 1320 1482
0 0 0 0 0 0 0 0 0 0 0 0 0 0 0 0 0 0 0 0 0 0 0 6 0 0 241 774 867 550 339 309 372 452 444 553 609 599 544 445 414 500 501 516 436 382 1284 1539 1478
0 0 0 0 0 0 0 0 0 0 0 0 0 0 0 0 0 0 0 0 0 0 0 0 0 0 74 692 533 690 541 394 464 550 525 610 631 585 620 495 594 399 360 517 424 612 1270 1440 1524
0 0 0 0 0 0 0 0 0 0 0 0 0 0 0 0 0 0 0 0 0 0 0 0 0 0 14 171 579 550 640 650 670 688 691 732 798 739 747 625 604 580 573 442 490 1061 1085 1077 1117
0 0 0 0 0 0 0 0 0 0 0 0 0 0 0 0 0 0 0 0 0 0 0 0 0 0 0 84 309 553 707 823 808 844 914 966 1028 890 794 759 708 708 791 621 944 1185 1231 996 255
0 0 0 0 0 0 0 0 0 0 0 0 0 0 0 0 0 0 0 0 0 0 0 7 0 0 0 79 593 758 885 568 573 965 1102 1142 1099 846 1047 975 563 355 488 1102 1196 1079 986 992 469
0 0 0 0 0 0 0 0 0 0 0 0 0 0 0 0 0 0 0 0 0 0 0 0 0 0 17 328 653 802 727 671 836 1083 1156 912 1117 1125 1088 780 545 847 1243 1237 1174 1097 996 331 7
1 0 0 0 0 0 0 0 0 0 0 0 0 0 0 0 0 0 0 0 0 0 0 0 0 70 165 540 778 1001 1138 1145 1160 1157 1327 1295 1335 1229 837 655 1088 1307 1248 1271 1055 556 458 154 235
0 0 0 0 0 0 0 0 0 0 0 0 0 0 0 0 0 0 0 0 0 0 0 0 190 517 471 614 911 1150 1224 1170 1204 1213 1484 1499 1494 1218 754 1171 1203 1150 1042 1056 1134 543 2 79 554
0 0 0 0 0 0 0 0 0 0 0 0 0 0 0 0 0 0 0 0 0 0 0 36 703 959 739 851 1011 1237 1239 1045 1264 1414 1469 1383 1277 1149 867 730 917 1126 984 977 901 763 568 300 458
0 6 0 0 0 0 0 0 0 0 0 0 0 0 0 0 0 0 0 0 0 0 0 452 1020 1067 960 904 895 1112 1152 1341 1478 1396 1105 939 848 1037 1051 1036 1141 989 887 720 576 545 516 512 428
0 0 1 0 0 0 0 0 0 0 0 0 0 0 0 0 0 0 0 0 0 0 97 718 1188 1159 965 799 707 763 898 910 962 903 843 837 812 891 983 969 927 732 558 473 488 449 424 433 470
0 0 0 0 0 0 0 0 0 0 0 0 0 0 0 0 0 0 0 0 0 55 312 1015 1252 1096 919 777 648 685 661 682 652 748 805 735 821 822 835 843 808 598 472 471 505 434 524 605 576
18 0 0 0 0 0 0 0 0 0 0 0 0 0 0 0 0 0 0 77 102 479 1003 1206 1151 993 720 670 680 565 531 570 583 618 679 691 710 642 742 677 674 598 460 563 732 605 618 667 516
43 49 13 6 0 0 0 0 0 0 0 0 0 0 0 0 0 100 41 33 442 937 1106 1091 898 669 583 503 402 442 463 518 610 663 585 612 612 592 531 411 334 452 615 787 854 727 577 547 214
1 25 18 51 0 0 0 0 0 0 0 0 0 0 0 0 4 86 36 91 610 1103 955 866 701 605 514 427 447 476 459 472 575 533 485 360 277 194 188 250 359 491 606 718 681 653 483 379 16

GFSSGP_con_sbcape_048.txt.gz
CAPE
0 0 0 0 0 0 0 0 0 0 0 0 0 0 0 0 2 26 18 48 82 104 435 935 1242 1160 1138 939 719 425 312 237 230 250 200 138 78 28 0 0 0 0 0 0 0 0 0 0 0
0 0 0 0 0 0 0 0 0 0 0 0 0 0 0 2 0 0 0 78 121 252 696 95 1225 1089 1072 841 695 518 408 266 233 245 181 99 95 67 7 0 0 0 0 0 0 0 0 0 0
0 0 0 0 0 0 0 0 0 0 0 0 0 0 0 24 17 0 26 77 154 504 687 140 1293 1067 958 754 657 520 437 292 265 235 167 111 110 76 49 41 34 0 0 0 0 14 21 32 32
0 0 0 0 0 0 0 0 0 0 0 0 0 0 0 0 7 1 81 52 197 270 438 760 1276 1165 1086 916 782 544 441 325 291 273 200 138 120 96 87 72 63 12 0 2 19 63 80 101 123
0 0 0 0 0 0 0 0 0 0 0 0 0 0 0 1 28 22 114 43 157 195 205 518 1434 1304 1277 1173 976 717 539 385 380 348 283 221 173 157 123 115 49 19 27 37 67 116 182 228 307
0 0 0 0 0 0 0 0 0 0 0 0 0 1 0 72 118 61 89 128 103 263 264 221 1470 1451 1375 1314 1111 862 668 538 469 446 345 323 296 257 188 167 156 185 168 137 135 237 329 379 520
0 0 0 0 0 0 0 0 0 0 0 0 15 1 0 5 55 118 150 298 305 384 603 403 598 1029 1463 1427 1281 1092 806 664 580 459 459 390 386 353 302 315 313 359 484 566 514 415 484 598 607
0 0 0 0 0 0 0 0 0 0 0 0 0 1 0 0 272 308 210 347 449 508 472 618 561 387 303 330 1499 1420 1137 834 688 677 648 553 549 552 438 387 413 515 622 609 793 700 737 927 714
0 0 0 0 0 0 0 0 0 0 0 0 0 0 0 55 280 189 135 115 131 238 587 621 430 471 347 69 299 1396 1182 1055 964 825 809 501 92 182 147 184 390 701 752 795 754 848 1061 1124 1001
0 0 0 0 0 0 0 0 0 0 0 0 0 0 0 0 225 130 122 130 101 187 351 572 803 504 589 180 371 911 452 453 255 127 162 212 86 134 94 187 613 863 951 1055 1095 1202 1208 1213 919
0 0 0 0 0 0 0 0 0 0 0 0 0 0 0 0 0 8 57 135 131 213 356 568 910 798 658 526 323 590 801 588 706 366 745 611 173 212 209 159 313 378 786 493 739 944 1204 1049 1047
0 0 0 0 0 0 0 0 0 0 0 0 0 0 0 0 0 0 0 0 0 44 143 395 1016 1225 1100 675 559 562 555 709 720 722 1313 1101 687 791 427 256 282 367 340 452 577 624 1233 1237 1182
0 0 0 0 0 0 0 0 0 0 0 0 0 0 0 0 0 0 0 0 0 0 0 29 298 1565 1400 1782 930 1229 1401 832 981 884 1020 817 522 1010 573 670 256 345 341 422 608 722 1071 1234 1297
0 0 0 0 0 0 0 0 0 0 0 0 0 0 0 0 0 0 0 0 0 0 22 24 123 912 1767 2090 2144 1857 1511 1203 941 840 804 1343 869 1372 597 630 443 308 376 349 700 543 948 1193 1197
0 0 0 0 0 0 0 0 0 0 0 0 0 0 0 0 0 0 0 0 0 5 53 117 207 363 1410 1847 1928 1999 1302 1268 930 947 1282 1072 1447 1507 1247 635 648 405 550 556 507 581 888 830 1387
0 0 0 0 0 0 0 0 0 0 0 0 0 0 0 0 0 0 0 0 18 64 40 77 6 0 262 1299 1240 1291 910 943 1035 964 1122 1224 1344 1282 1314 798 762 616 668 472 481 441 352 411 1404
0 0 0 0 0 0 0 0 0 0 0 0 0 0 0 0 0 0 0 0 0 24 35 12 176 79 101 791 434 1111 1705 1179 976 1043 1139 1289 1350 1326 1128 1023 914 1072 629 455 359 330 296 352 1696
0 0 0 0 0 0 0 0 0 0 0 0 0 0 0 0 0 0 0 0 0 0 5 490 558 648 270 82 334 574 915 1166 1040 1068 1211 1359 1451 1322 1352 1233 1326 1225 805 389 380 340 294 1125 1534
0 0 0 0 0 0 0 0 0 0 0 0 0 0 0 0 0 0 0 0 0 0 56 702 381 1049 384 41 301 772 999 1263 1227 1274 1428 1513 1487 1491 1467 1509 1278 1284 861 739 594 545 950 1540 1283
0 0 0 0 0 0 0 0 0 0 0 0 0 0 0 0 0 0 0 0 0 0 57 463 337 781 543 149 812 834 1166 1264 1530 1543 1652 1632 1758 1731 1358 1732 1569 1369 1109 1061 1025 1144 1402 1118 1159
0 0 1 1 4 0 0 0 0 0 0 0 0 0 0 0 0 0 0 0 0 0 0 41 370 393 651 601 1029 1530 1628 1519 1485 1645 1876 1869 1700 1386 1522 1804 1556 1571 1252 1239 1670 1710 1459 1349 1134
10 0 1 11 31 5 2 0 0 0 0 0 0 0 0 0 0 0 0 0 0 0 0 0 7 281 567 1131 1778 2300 1717 1657 1688 1950 1985 1385 1437 1651 1761 1792 1513 1441 1559 1673 1668 1561 1548 1372 746
17 7 15 25 27 32 1 2 0 0 0 0 0 0 0 0 0 0 0 0 0 0 0 0 3 114 841 1369 1838 1836 2177 1925 1965 1917 2113 2186 2106 1781 1873 1747 1799 2107 1689 1603 1416 1435 1485 1095 1015
39 37 37 50 47 55 0 16 0 0 0 0 0 0 0 0 0 0 0 0 0 0 0 0 0 661 1429 1607 1723 2116 1998 2033 2074 2312 2413 2306 2020 1880 1916 2001 2133 2029 1641 1703 1650 1436 1048 966 659
39 87 103 67 67 29 4 26 0 0 0 0 0 0 0 0 0 0 0 0 0 0 0 0 428 1483 1796 1726 1751 2020 2359 2480 2748 2701 2411 2546 2278 2135 2166 1809 1730 1672 1664 1424 1442 1371 1033 855 690
47 71 140 68 38 11 12 19 0 0 0 0 0 0 0 0 0 0 0 0 0 0 0 91 760 1664 1926 1992 2150 2438 2633 2621 2636 2408 2266 1974 1836 1892 2142 1804 1742 1559 1355 1298 1210 853 659 711 817
132 105 88 19 26 60 0 8 0 0 0 0 0 0 0 0 0 0 248 99 41 0 8 435 1267 1834 1969 2101 2245 2370 2269 2236 2034 1993 1852 1415 1296 1455 1900 1726 1550 1313 1187 1125 928 535 730 724 788
240 136 103 51 61 68 9 0 0 0 0 0 0 0 0 0 0 74 491 486 484 322 669 1172 1728 1998 2072 1999 2015 1923 1898 1816 1857 1716 1227 1257 1452 1342 1601 1523 1248 1214 940 785 737 530 633 660 872
41 95 36 93 74 29 32 0 3 0 0 0 0 0 0 0 0 196 530 458 783 1039 1446 1828 1954 2034 2002 1909 1803 1742 1479 1271 1261 1291 1388 1523 1485 1386 1185 1060 926 784 724 632 694 622 610 740 783
32 122 182 177 123 12 2 25 0 20 0 0 0 0 0 0 0 108 418 352 1153 1620 1830 2016 1961 1897 1834 1660 1446 1228 1181 1225 1363 1292 1273 1271 1123 836 684 547 472 460 384 704 834 752 482 640 693